ECMWFFLT1_sfc_dewp_006.txt.gz
Dewpoint
43 44 46 46 48 50 48 49 50 50 51 52 52 53 54 54 52 52 53 53 53 54 54 53 53 53 54 54 55 55 56 57 59 59 58 59 58 58 61 60 60 60 61 61 60 58 56 55 55 58 59 59 60 59 59 58 59 59 60 60 60 61 61
45 47 49 51 49 50 49 48 49 49 50 51 52 53 53 53 54 52 52 52 52 53 54 52 52 52 52 52 53 53 54 55 56 57 57 56 57 57 58 58 60 60 60 60 60 59 57 55 55 56 56 58 59 59 60 60 59 60 60 60 59 59 61
48 47 47 48 47 46 48 48 48 49 50 51 51 51 51 51 51 52 51 51 52 53 53 51 51 51 51 51 52 52 53 53 54 55 54 55 55 56 56 57 56 57 58 58 59 59 59 58 56 57 57 56 56 58 59 60 60 60 59 59 60 59 59
47 46 46 46 47 46 47 47 48 49 50 50 51 51 51 51 52 53 51 51 52 54 52 50 50 50 51 51 51 51 51 51 52 52 52 53 54 53 54 55 54 55 55 55 56 57 57 56 56 56 56 56 56 57 59 60 60 59 59 60 59 59 59
47 46 45 46 47 46 47 47 47 48 50 50 49 50 50 50 51 51 52 50 51 49 50 50 50 50 50 50 50 50 50 50 51 52 51 51 51 52 52 53 54 55 55 54 55 57 56 56 56 55 56 57 57 57 57 59 59 59 59 58 59 59 59
47 46 45 45 47 47 47 47 47 48 49 50 49 49 49 49 50 48 48 49 50 50 50 49 49 49 49 49 49 49 49 49 49 49 49 50 50 50 51 52 52 53 52 54 55 54 55 56 57 55 55 58 56 56 57 59 59 59 59 59 59 58 58
46 46 45 45 47 47 47 47 48 49 50 50 50 49 50 50 50 50 49 49 50 50 49 49 49 49 49 48 48 48 48 48 49 49 49 49 49 50 51 51 51 51 52 52 53 53 53 53 53 53 53 55 56 55 56 58 59 57 60 60 59 59 59
46 46 45 46 47 46 46 47 48 48 49 49 50 50 51 49 49 48 49 49 48 48 48 48 48 47 48 47 48 48 49 48 47 49 48 47 48 48 48 49 49 50 51 51 52 51 51 51 51 52 52 51 53 54 53 56 57 58 55 59 58 58 59
48 46 45 47 47 47 47 47 48 48 49 49 49 50 50 49 48 49 50 48 48 48 48 47 47 47 47 46 46 46 47 50 46 46 47 47 47 47 47 47 47 47 49 48 49 49 50 51 52 52 52 52 50 49 52 52 55 54 58 55 61 61 61
47 45 44 45 46 47 47 47 47 48 48 48 49 50 49 48 48 49 48 48 47 47 47 47 46 46 46 45 45 45 46 47 48 46 47 46 47 47 47 46 46 46 47 48 48 48 48 50 51 51 50 51 50 49 49 50 50 50 53 58 55 60 60
48 46 45 45 46 46 47 47 46 47 47 48 49 50 49 48 49 52 48 47 47 46 47 46 46 45 45 45 45 45 46 46 45 45 46 47 46 47 47 45 45 45 46 47 47 47 47 48 49 49 49 50 51 50 50 49 49 51 52 57 58 57 58
48 48 46 45 46 45 46 46 46 46 47 48 50 49 48 48 49 47 47 47 46 46 45 46 46 45 44 44 46 45 45 45 45 45 45 46 46 46 45 44 45 45 46 46 46 46 47 47 47 47 48 49 49 50 50 49 47 50 53 53 56 58 58
47 47 47 45 46 45 45 46 46 46 46 49 48 48 48 48 48 47 47 46 45 45 45 45 44 44 44 44 44 44 44 45 44 44 45 45 45 45 44 44 44 44 45 45 45 46 46 46 47 47 47 48 48 49 50 49 48 47 50 51 52 54 57
47 47 46 46 46 46 45 47 46 46 47 48 48 47 48 48 47 47 46 46 45 45 44 44 44 44 44 43 44 44 44 44 44 44 45 44 44 44 44 44 44 44 45 45 45 45 45 45 46 47 47 47 47 48 48 48 47 47 48 52 53 53 56
48 47 46 46 46 46 45 46 46 47 47 47 47 47 47 47 47 46 45 44 44 43 43 43 43 43 43 43 43 44 44 43 43 43 43 42 43 44 44 43 43 44 44 44 45 43 43 44 44 44 45 46 46 47 49 46 46 46 45 47 51 54 55
48 47 46 46 46 46 46 46 47 46 46 46 47 47 46 46 45 44 44 43 43 43 43 43 43 43 43 43 42 42 43 43 42 43 42 42 42 42 43 44 43 43 44 44 44 44 44 44 44 43 45 46 46 46 46 46 45 44 45 45 48 49 53
48 47 46 46 46 46 46 46 47 46 46 46 46 46 45 44 44 43 44 43 43 42 42 43 43 42 42 42 42 42 42 42 42 42 42 42 41 42 43 43 43 43 43 43 42 43 43 44 44 43 44 45 46 45 46 46 46 44 44 45 46 47 49
48 47 46 46 46 46 46 46 47 46 45 45 45 45 45 44 43 43 43 42 42 42 42 42 42 42 42 42 42 42 42 41 41 41 42 42 43 43 43 42 42 42 43 42 43 42 42 43 41 41 41 42 42 44 45 45 45 46 45 44 44 45 47
48 47 47 46 46 46 46 46 46 46 45 45 45 44 44 43 43 42 42 41 41 41 41 41 41 41 41 42 42 42 42 42 42 41 41 41 41 42 42 41 40 41 41 41 41 41 42 41 40 41 41 40 40 42 43 44 46 45 44 43 43 43 46
48 48 47 46 46 46 46 46 46 45 45 44 44 43 43 43 43 41 41 40 40 41 41 41 40 40 40 40 40 41 41 41 40 41 40 40 41 41 40 39 40 40 40 40 40 39 39 40 40 41 40 40 39 39 40 41 41 41 42 42 42 43 44
48 48 48 46 47 46 46 46 45 45 45 44 43 43 42 42 42 40 40 40 40 42 40 40 39 40 41 40 42 41 40 40 40 39 39 39 39 39 39 39 39 39 40 40 40 39 40 40 40 39 39 40 39 39 38 39 39 39 40 40 41 41 43
48 48 47 47 47 47 46 45 45 45 45 44 44 43 41 41 40 40 40 41 41 41 40 40 40 40 40 40 39 39 39 38 38 39 38 38 38 39 39 39 39 39 41 42 41 41 41 41 40 39 39 39 39 39 38 38 38 38 39 39 39 41 41
48 47 47 47 46 46 46 45 45 44 44 43 42 41 41 40 40 39 40 40 40 40 40 40 44 40 41 41 40 39 39 39 38 38 38 38 38 38 38 38 40 41 41 41 40 40 39 39 40 40 39 39 39 38 37 37 36 36 36 36 37 39 40
48 47 47 47 47 46 46 46 45 45 43 42 41 41 40 39 39 39 39 39 38 39 39 40 39 38 38 38 39 38 38 38 38 38 38 37 37 37 37 37 38 39 40 40 40 39 38 38 38 38 38 39 39 39 37 36 36 36 35 35 35 37 38
47 47 47 46 46 46 46 45 43 43 43 42 41 40 39 38 39 38 38 37 37 38 38 40 38 37 37 37 38 40 38 37 37 36 36 36 36 36 36 36 37 38 38 38 38 38 38 38 37 37 37 36 36 37 37 38 37 36 36 35 34 35 36
47 46 46 46 46 46 45 44 43 43 42 41 41 39 38 38 37 38 37 36 36 38 37 39 37 37 37 37 37 37 36 36 36 36 35 35 35 35 35 35 35 36 36 38 38 37 37 37 38 37 37 37 37 36 35 35 36 38 37 36 35 35 35
46 46 46 46 46 45 45 44 43 43 42 41 39 39 38 37 37 37 36 36 36 36 35 37 37 36 36 36 35 36 36 35 35 35 35 35 34 34 34 34 34 34 35 35 36 36 36 36 36 36 36 36 36 37 36 36 36 36 37 38 37 36 37
46 46 46 46 45 44 44 42 42 42 41 40 39 37 37 36 37 37 36 35 34 34 34 36 36 35 35 35 35 35 35 35 35 35 35 34 34 34 33 34 34 33 34 34 35 35 35 35 35 35 35 35 35 35 36 35 35 36 36 37 37 37 37
46 46 46 45 44 43 43 42 42 42 41 40 39 38 37 37 37 35 35 34 33 31 32 35 35 35 35 35 35 36 35 34 34 34 33 34 33 33 33 33 33 33 33 33 34 34 35 35 34 34 34 34 34 34 35 35 36 36 36 36 36 36 36
46 46 46 45 44 44 43 42 41 40 39 38 37 36 36 36 36 35 34 33 31 29 29 34 35 35 35 35 35 34 34 34 33 33 33 33 33 33 33 33 33 32 33 33 34 34 34 35 34 34 33 33 34 34 34 35 35 35 36 36 35 35 35
46 46 46 45 44 43 42 42 41 41 39 37 37 36 36 36 35 35 34 32 30 28 29 32 35 35 35 35 35 34 33 33 32 32 32 32 33 33 33 35 35 33 33 33 34 33 33 33 31 32 32 32 32 33 33 34 35 35 35 35 35 35 35
46 45 45 44 43 42 42 41 41 41 41 40 38 38 37 36 34 34 34 32 36 31 29 31 35 35 35 35 36 34 33 32 31 31 31 31 32 32 32 33 34 34 33 33 33 33 33 33 31 31 31 31 30 30 31 33 33 33 34 34 34 34 35
46 46 44 43 43 43 42 41 41 41 40 39 38 38 38 35 34 34 33 34 34 34 30 30 34 34 35 35 35 35 33 32 31 29 30 30 31 32 32 32 33 33 33 33 33 33 33 33 32 31 31 30 30 29 31 31 32 32 33 33 33 35 35
46 46 44 44 43 43 42 41 40 40 38 37 37 36 36 34 33 33 33 33 32 32 32 31 32 34 34 35 34 34 32 32 31 30 30 30 30 30 31 31 32 33 33 33 33 33 33 33 33 33 31 31 31 31 32 31 31 33 32 32 32 32 32
46 45 45 44 42 42 43 42 41 40 39 37 35 34 34 33 32 32 32 32 32 31 32 36 33 34 34 34 34 34 33 32 33 31 31 30 30 31 31 31 32 33 33 33 33 33 33 33 33 33 31 32 33 33 32 32 31 31 31 31 31 32 32
45 44 43 42 41 41 41 41 39 38 36 35 34 33 33 33 32 31 31 31 31 31 31 32 34 35 34 34 33 33 33 33 33 33 31 30 31 31 32 32 32 33 33 33 33 33 33 33 33 33 32 33 33 33 33 33 32 31 31 30 31 31 31
43 43 43 42 41 40 39 38 37 36 35 34 33 32 31 31 31 31 31 31 31 31 31 30 31 33 33 32 33 33 33 32 33 32 32 31 32 32 32 32 32 32 33 33 33 33 33 33 33 33 33 33 33 33 33 33 33 32 32 31 31 31 31

ECMWFFLT1_sfc_dewp_009.txt.gz
Dewpoint
53 52 54 56 57 55 53 55 55 56 57 57 56 56 56 56 57 57 57 57 55 54 53 53 54 54 54 55 57 59 58 57 58 57 57 57 57 57 60 61 60 61 61 61 60 58 58 56 56 57 60 61 61 61 60 60 60 60 62 62 60 60 61
50 52 53 55 54 55 55 56 56 55 56 57 55 56 56 55 55 55 55 54 53 52 50 50 52 53 54 55 55 55 56 57 56 57 56 55 56 56 56 57 58 58 59 59 60 59 57 55 54 56 57 58 61 61 62 61 60 61 61 60 59 59 60
52 53 54 54 54 55 54 56 56 55 55 55 56 55 55 53 53 53 53 53 54 51 49 50 50 52 52 52 53 54 55 55 56 56 55 54 55 55 55 56 55 55 56 57 57 57 57 58 55 55 56 55 55 58 61 61 60 60 60 61 62 59 60
54 54 53 54 53 54 53 54 55 56 56 55 55 56 55 53 55 54 54 54 53 52 50 48 49 48 50 51 51 51 52 52 52 53 53 54 54 53 54 53 54 54 54 53 55 56 56 55 54 53 54 52 52 54 58 59 59 57 57 59 61 61 61
55 53 53 54 53 53 54 53 55 55 56 55 56 54 55 54 55 55 55 54 53 52 51 50 49 48 48 48 49 49 50 50 51 51 51 51 52 51 52 51 52 53 53 53 53 55 55 55 54 53 52 52 53 53 54 58 57 57 56 56 56 58 60
55 54 53 54 54 53 53 54 54 54 55 54 54 53 54 55 54 54 54 52 52 52 51 49 49 48 48 48 48 48 48 48 48 49 48 50 50 48 48 49 48 50 50 51 52 52 52 54 54 52 51 53 52 52 52 55 55 54 54 54 56 56 56
55 55 54 53 54 52 53 54 54 54 54 55 55 54 53 53 53 54 54 53 52 52 51 50 50 48 47 45 47 47 48 48 48 48 48 49 49 49 48 47 47 47 48 49 50 50 50 51 50 51 51 51 52 50 50 50 52 52 53 55 55 54 54
54 53 53 53 54 53 54 55 55 55 54 55 55 55 54 55 54 54 54 53 53 53 52 51 50 49 48 45 46 48 47 47 47 47 47 48 47 47 48 46 46 45 46 45 48 48 47 49 49 50 50 48 48 48 47 45 47 50 50 50 54 54 53
54 54 53 52 53 55 54 55 55 56 56 55 56 56 56 55 54 54 54 53 53 52 51 49 48 47 47 46 46 47 47 47 48 48 47 47 48 48 48 47 45 44 46 45 45 45 46 47 48 49 49 49 46 44 46 45 45 43 46 48 49 53 54
54 54 53 53 54 54 55 55 55 56 57 57 56 56 56 55 54 54 53 53 53 52 51 49 48 48 47 46 46 47 47 47 47 46 46 47 47 47 47 47 45 44 45 46 46 46 47 48 47 46 47 48 48 47 44 43 44 45 45 49 47 51 54
54 54 54 53 54 53 53 53 54 55 55 56 56 57 55 54 55 54 53 52 52 51 50 49 48 48 48 46 47 46 46 46 46 46 45 45 46 46 45 45 45 44 46 46 45 47 47 47 46 46 45 46 47 46 46 45 44 47 47 49 49 47 52
53 53 53 52 53 52 53 52 52 53 55 55 55 56 55 54 54 54 53 52 51 51 50 50 49 48 47 46 46 45 46 45 44 44 45 45 45 45 44 45 45 44 46 46 46 46 47 46 46 45 45 45 45 47 47 46 44 46 49 48 49 50 50
51 52 52 52 51 51 51 52 52 53 54 54 55 55 54 53 53 53 53 52 51 50 49 49 48 48 47 46 45 44 45 44 42 42 42 43 41 44 44 44 44 43 44 43 44 45 45 45 46 44 45 45 44 46 46 44 44 44 46 47 47 48 48
53 52 53 53 52 52 52 52 52 52 53 54 55 55 54 53 52 52 52 50 49 49 48 48 48 47 46 45 45 44 43 41 40 41 41 42 42 43 41 42 43 44 45 45 44 44 42 43 44 44 44 43 43 44 44 44 43 43 45 47 47 46 46
53 52 53 53 52 51 52 51 53 52 52 53 54 53 52 54 52 51 50 49 49 47 47 46 46 46 44 45 45 45 43 41 41 41 42 39 40 41 42 41 39 43 43 43 45 40 39 40 40 39 40 42 41 42 45 43 42 42 43 45 45 45 45
53 53 53 53 52 51 52 52 52 52 51 53 53 53 53 53 52 51 51 49 47 47 46 45 46 45 44 43 42 43 43 42 41 41 40 39 37 39 40 41 40 41 43 44 44 44 44 42 41 39 42 41 41 41 41 41 42 41 42 42 44 43 45
54 53 53 53 53 53 52 52 51 51 51 52 51 53 53 52 51 51 50 48 47 46 46 46 45 43 42 42 41 41 41 42 41 40 39 38 37 39 39 40 40 41 41 41 41 42 42 42 42 41 42 42 42 41 43 43 43 42 41 41 43 41 42
54 54 53 53 53 53 52 51 51 50 51 51 51 52 52 51 51 50 49 47 46 45 45 44 43 43 44 43 42 42 41 40 41 40 40 40 39 40 39 39 39 39 40 40 40 39 39 42 38 39 39 39 40 41 42 42 42 42 42 41 41 42 43
54 54 54 53 53 52 52 51 51 51 50 49 51 51 51 50 50 48 47 46 45 44 43 43 42 41 41 42 43 42 42 41 41 39 39 39 38 39 39 38 38 38 38 39 39 40 40 40 38 39 38 37 36 39 42 42 41 41 41 40 41 40 41
54 54 54 53 53 52 51 51 50 49 50 52 51 50 50 49 49 47 46 46 45 43 43 43 43 43 41 41 41 41 41 41 39 41 39 37 37 38 38 37 39 39 39 38 39 39 40 41 40 40 40 40 38 39 39 39 38 39 39 38 38 39 39
55 55 54 53 52 52 51 51 50 50 50 50 50 48 48 49 49 47 46 44 44 45 44 42 41 41 40 41 40 39 38 39 38 37 38 36 37 37 37 37 37 37 38 38 39 39 40 40 40 39 38 38 39 38 38 38 38 38 38 38 37 36 37
54 54 54 52 52 51 51 50 51 50 49 49 49 48 49 49 46 46 45 45 44 44 43 42 41 41 40 38 37 36 36 34 36 35 35 34 35 35 35 36 36 36 37 39 41 41 41 41 39 38 39 39 39 38 37 37 36 35 37 37 37 38 36
54 53 53 52 51 51 50 50 50 49 48 48 49 48 48 47 45 44 44 43 44 44 43 43 43 41 39 34 35 33 36 35 33 34 34 34 34 34 34 35 37 38 40 40 40 39 39 39 40 40 38 39 38 37 36 35 34 35 35 34 35 36 36
53 52 52 52 51 51 50 50 49 49 49 48 48 47 46 45 45 44 43 43 42 43 43 41 39 38 38 39 36 35 34 34 34 34 34 34 33 33 33 32 35 36 37 37 36 37 37 38 38 38 39 40 39 38 37 36 36 35 34 35 35 36 35
52 51 52 51 50 50 50 50 49 48 48 48 48 47 46 45 45 45 44 42 42 42 40 40 37 37 37 38 38 34 35 34 35 34 33 33 31 32 32 34 35 37 37 36 35 35 36 37 37 37 37 37 37 37 38 38 36 36 36 35 34 35 35
51 51 51 51 50 50 49 48 48 48 47 48 48 46 45 45 44 44 42 41 40 39 36 38 36 37 37 37 37 37 31 34 33 33 33 33 33 32 33 33 34 35 35 36 36 35 35 36 36 36 36 37 37 37 36 35 36 39 36 35 36 35 35
51 51 51 51 50 49 48 47 48 48 48 47 46 45 44 44 43 42 41 40 39 36 33 37 36 36 37 36 36 36 33 34 34 33 32 32 33 32 32 33 32 33 34 35 35 35 35 35 35 35 36 36 36 36 36 36 36 36 37 37 36 35 35
50 51 51 50 50 49 48 48 47 47 46 45 45 44 44 43 43 43 42 41 39 36 35 36 35 35 36 36 36 36 35 36 34 34 34 34 33 33 32 34 34 33 33 34 35 35 34 34 34 34 34 34 35 35 36 36 36 37 38 39 37 37 36
50 50 50 50 49 48 48 47 46 46 46 45 44 44 44 43 42 41 40 37 35 33 34 34 34 35 35 35 36 35 34 34 33 33 32 33 32 31 31 32 32 32 33 34 34 34 35 34 33 32 32 32 33 33 35 36 36 36 37 37 37 37 37
49 50 50 49 47 47 47 46 46 44 44 43 42 41 41 41 40 39 38 37 37 36 33 34 34 34 35 35 35 32 34 31 31 32 33 32 31 31 32 32 31 31 32 33 34 33 34 35 32 31 31 31 31 32 32 34 34 35 36 36 35 35 35
48 49 49 48 47 47 47 46 45 44 42 41 41 41 41 40 39 38 37 36 36 34 33 34 34 34 34 35 35 32 30 30 32 32 32 33 33 31 31 34 34 32 32 33 33 33 33 34 32 31 31 31 30 31 31 33 33 34 34 35 36 35 35
48 48 49 48 48 47 47 46 46 44 44 44 43 43 42 39 39 38 37 38 38 37 36 35 34 34 35 35 35 33 30 29 30 31 31 30 32 32 32 33 35 35 34 33 33 33 33 34 32 32 31 31 30 30 31 32 32 32 33 33 34 34 35
48 48 48 49 48 47 46 45 44 44 43 42 41 42 41 38 38 39 38 37 38 37 37 35 36 34 35 35 35 32 30 29 30 30 31 30 31 32 31 32 33 33 34 34 33 33 33 33 32 32 31 30 30 30 31 31 32 32 32 32 32 33 33
48 49 49 49 48 47 46 45 45 44 43 43 42 41 41 40 39 38 37 37 36 37 37 35 35 34 35 35 35 35 30 31 31 30 30 30 30 31 30 30 31 32 32 33 33 33 33 33 33 32 32 31 31 32 32 31 31 32 31 31 32 32 32
48 49 49 47 47 46 45 44 43 43 43 43 41 41 40 39 38 39 38 37 36 38 36 36 37 35 34 35 35 35 33 32 33 31 30 30 31 31 31 30 30 32 33 33 33 33 33 33 33 32 31 31 32 32 32 31 31 31 31 30 30 30 30
49 49 47 46 45 44 44 43 44 44 42 42 42 41 39 38 37 36 36 37 37 37 37 36 36 36 35 35 34 34 34 33 33 33 32 32 32 32 31 30 32 34 33 33 32 32 32 32 33 31 32 32 32 32 32 31 31 31 31 31 31 31 30
48 48 46 45 45 44 44 44 44 45 45 44 42 39 38 37 37 36 36 34 36 35 37 37 34 34 35 33 33 33 33 33 33 33 33 32 32 32 30 32 32 33 33 33 33 33 33 33 31 31 32 32 32 32 32 32 31 32 32 32 32 31 31

ECMWFFLT1_sfc_dewp_015.txt.gz
Dewpoint
48 52 53 53 54 53 53 54 54 55 55 55 55 53 55 54 55 54 54 54 53 52 51 52 55 54 55 54 56 56 56 56 59 61 60 59 60 61 62 62 61 61 59 59 59 56 58 56 59 63 64 64 64 65 65 65 64 64 65 64 61 59 59
51 50 51 51 51 54 54 54 54 53 55 55 52 53 53 52 54 54 54 53 52 50 48 49 52 52 55 56 55 55 54 54 55 56 55 56 57 56 57 59 57 58 58 59 58 59 57 54 55 58 59 64 63 65 66 65 65 65 65 64 64 65 64
49 47 49 50 52 53 54 55 54 53 52 52 53 51 50 48 49 50 48 49 50 47 46 46 48 51 53 53 55 56 56 55 55 55 54 53 53 54 53 54 52 52 52 53 58 59 53 55 53 51 56 60 60 64 65 65 66 67 66 66 64 61 60
50 49 50 51 50 54 53 53 52 52 51 51 51 52 51 50 51 49 50 49 49 49 47 46 49 46 50 51 52 53 54 54 54 55 53 53 53 52 52 50 49 49 51 50 51 52 51 50 48 48 49 47 50 56 63 64 63 62 64 66 62 60 64
51 49 52 50 50 53 53 52 52 51 51 51 51 50 52 52 51 50 50 50 49 49 48 49 49 48 49 50 50 51 51 52 53 52 52 52 52 51 50 50 49 48 51 49 49 50 49 47 49 45 41 38 38 40 46 59 56 54 52 51 53 55 58
51 50 52 51 51 50 51 51 51 51 50 50 50 51 53 53 51 51 51 49 49 50 50 48 49 50 49 49 50 50 51 51 50 52 49 51 50 50 48 48 46 47 49 49 48 50 48 48 46 43 40 41 43 42 40 38 38 37 43 43 42 42 48
51 51 51 51 51 50 50 51 50 50 51 51 50 51 52 52 51 52 51 50 50 50 50 51 51 49 49 44 48 50 50 52 52 52 51 52 52 51 50 47 46 44 46 48 48 48 49 47 45 45 45 41 41 36 34 33 33 32 36 41 42 40 39
51 49 48 50 51 50 51 51 50 50 50 52 49 51 51 53 53 52 52 51 50 51 50 51 50 50 50 47 48 51 50 50 50 50 50 51 51 50 50 48 48 46 44 44 44 46 44 46 46 47 45 41 40 40 38 35 34 36 35 36 37 40 44
51 50 48 48 51 51 52 51 50 51 51 52 52 52 52 53 53 52 51 51 51 50 50 49 48 47 49 48 48 50 48 47 52 51 51 51 51 51 49 50 49 45 46 44 44 45 44 47 45 45 45 45 43 40 40 38 36 34 37 37 38 41 42
54 52 50 50 53 52 52 52 50 51 53 53 53 53 52 53 54 53 51 51 51 51 51 49 49 49 50 49 50 50 50 49 49 49 50 49 50 48 49 48 46 46 44 46 49 47 47 48 48 45 44 43 44 41 40 39 39 39 37 38 38 39 39
55 55 53 51 52 53 52 51 51 51 51 53 53 54 52 53 54 52 52 52 52 51 51 50 48 48 49 48 49 49 48 50 49 49 49 47 48 48 47 46 47 45 44 47 46 48 48 48 45 46 45 45 44 43 43 41 41 41 39 40 39 37 41
56 55 54 54 54 54 53 50 50 51 52 53 53 55 53 52 53 52 53 52 52 51 50 50 49 49 48 48 48 47 49 50 47 48 48 49 48 48 47 48 46 44 44 46 48 49 48 48 47 43 44 46 46 47 45 43 41 43 44 44 44 42 41
53 53 54 55 54 54 52 51 50 51 53 52 53 55 52 51 52 52 51 51 51 51 49 49 49 48 49 49 47 47 48 48 46 47 47 47 44 48 47 48 45 43 45 42 44 45 44 46 48 44 43 43 43 46 46 45 43 42 44 43 42 43 41
55 53 53 54 56 56 55 53 48 51 51 53 53 54 52 51 50 51 50 49 49 50 50 50 49 50 48 49 48 48 46 45 44 44 45 44 43 44 41 41 43 46 47 46 44 43 40 42 44 45 45 43 42 43 43 44 43 43 44 45 45 42 43
56 56 55 55 56 56 56 55 53 51 52 53 52 53 51 51 50 51 49 48 49 48 49 48 48 49 47 48 48 49 47 44 44 44 45 44 45 43 45 44 40 43 43 41 44 40 37 37 36 34 35 40 39 42 43 41 40 41 42 43 42 42 41
53 54 55 54 56 55 56 59 58 55 50 51 52 52 52 51 50 50 49 49 48 48 48 47 49 49 48 48 47 48 47 45 45 46 45 43 41 43 44 46 44 45 46 45 46 45 44 41 40 38 40 39 40 42 40 40 41 41 41 40 42 38 40
55 54 53 52 53 56 57 56 56 57 54 51 51 52 49 50 50 50 50 49 48 48 48 48 48 47 45 47 47 46 46 46 46 46 45 43 39 41 43 43 44 44 44 44 44 42 40 40 42 40 40 39 39 39 44 45 46 45 44 43 43 39 39
55 58 59 58 59 59 56 54 55 53 55 53 53 51 50 49 50 50 51 49 49 49 49 48 48 47 47 48 47 47 45 44 45 44 44 43 45 40 42 42 41 41 42 42 43 43 41 43 37 38 38 37 35 36 39 39 40 41 42 42 42 41 42
56 57 58 58 59 59 58 58 55 56 53 52 52 53 49 49 48 48 49 49 49 48 49 49 47 47 46 47 47 47 46 45 45 43 43 43 41 43 42 40 41 41 41 41 42 43 42 43 41 42 41 39 38 39 41 41 40 40 38 38 41 41 42
56 56 57 59 60 59 59 60 55 55 54 53 54 50 50 50 49 49 48 49 49 49 48 48 48 48 46 46 47 46 46 45 45 44 44 41 40 40 39 39 40 41 40 40 41 41 43 44 44 43 43 44 42 42 42 41 40 39 39 39 38 40 39
46 48 52 55 58 59 58 58 58 59 58 57 55 52 52 51 51 49 49 49 49 49 49 48 48 47 46 47 47 46 45 46 45 45 44 40 40 39 39 38 38 38 38 40 42 42 40 39 39 39 38 38 38 39 39 38 38 38 39 39 37 36 37
48 47 47 48 49 51 55 59 59 58 58 57 56 54 52 52 51 51 50 50 49 50 50 50 48 48 47 46 46 46 46 45 44 44 42 40 40 38 37 38 38 37 40 37 37 39 40 40 35 32 34 35 37 38 38 38 38 36 37 37 36 37 35
45 46 47 48 49 50 49 50 53 56 57 57 56 54 53 52 52 53 52 51 49 51 51 51 49 45 46 46 46 46 47 45 42 41 40 39 39 38 37 38 39 43 38 38 38 37 37 38 40 38 36 37 37 37 37 37 36 35 37 35 34 35 36
40 41 43 45 48 48 47 49 50 51 53 54 55 54 54 53 53 57 57 54 50 52 56 53 41 41 41 42 46 46 44 42 41 40 39 39 38 39 39 35 38 43 40 41 40 37 37 37 37 38 38 38 39 37 35 34 34 35 33 33 34 34 34
33 35 37 38 41 44 47 49 49 49 51 53 54 54 54 54 53 53 54 53 55 54 54 41 37 37 37 38 41 43 43 41 40 39 38 38 36 36 36 37 37 38 38 38 38 38 39 37 37 37 37 37 37 37 37 38 35 34 35 34 34 35 35
31 33 34 35 38 43 45 47 49 49 49 50 52 54 53 54 53 53 54 51 51 51 50 37 36 36 35 35 35 39 39 40 38 37 37 37 35 35 35 35 36 37 36 43 36 35 37 40 38 37 38 37 37 36 35 35 36 38 36 35 35 34 34
33 34 35 36 37 37 41 44 47 49 49 49 51 53 54 54 54 53 53 52 51 51 41 37 35 35 35 34 32 33 37 38 37 36 36 36 37 36 36 35 34 35 35 37 37 37 36 37 37 38 39 40 40 40 37 35 35 35 37 37 37 36 37
35 35 35 36 37 36 37 41 45 47 48 48 48 50 53 53 54 54 53 53 53 47 42 35 34 34 33 33 31 32 37 38 36 35 35 36 36 36 36 36 36 35 35 35 36 35 36 34 34 35 35 34 35 35 37 39 40 39 39 39 38 38 38
37 35 35 35 36 37 39 41 44 47 47 47 48 48 50 51 52 52 52 53 52 40 38 33 33 33 32 32 32 38 36 37 35 34 36 36 36 36 36 36 36 36 36 35 37 33 34 35 33 32 33 34 35 36 37 37 38 38 39 38 38 37 38
38 38 37 35 35 37 38 39 42 45 46 47 47 48 48 49 50 51 50 50 49 38 34 33 32 32 32 32 32 33 37 35 35 36 36 36 35 36 36 36 36 35 35 35 37 34 34 35 34 32 32 34 35 35 36 37 37 36 36 35 35 34 34
36 36 36 36 36 37 39 39 40 44 45 45 45 46 47 48 49 50 50 50 41 37 33 34 33 33 32 31 34 35 34 35 34 34 34 35 36 34 35 44 39 34 33 34 35 34 34 35 34 33 33 34 33 33 34 35 36 37 36 36 35 35 34
38 38 37 38 39 38 39 40 40 44 45 45 45 45 46 47 49 49 49 46 39 36 34 34 34 33 33 32 35 36 32 31 32 33 33 33 34 34 33 40 40 36 35 34 34 34 33 34 33 34 34 34 32 32 33 34 34 33 34 34 36 38 38
40 40 40 42 43 42 41 41 42 44 45 43 43 43 45 46 47 44 41 37 36 34 33 34 35 33 33 33 33 36 33 27 30 32 32 31 32 33 32 31 37 35 34 34 34 34 34 34 34 34 35 34 33 31 32 33 34 34 34 33 34 35 35
39 40 41 43 43 43 44 44 44 44 45 44 45 45 47 46 44 41 40 37 34 34 33 32 35 34 34 34 33 33 34 34 31 30 30 29 28 28 26 25 31 34 33 34 33 33 34 34 35 34 34 34 34 35 33 32 32 33 32 32 32 32 32
40 43 43 43 44 45 46 46 45 45 44 45 46 47 46 43 41 38 38 39 40 37 37 37 33 34 34 35 34 33 32 31 35 32 27 24 24 26 25 24 27 35 33 33 32 33 33 33 33 33 32 32 32 32 31 31 31 30 30 30 30 30 31
41 43 44 45 44 45 45 45 45 45 46 46 46 46 44 42 40 37 36 36 37 37 37 35 34 34 34 34 34 34 33 35 31 34 26 25 26 25 26 28 33 34 32 32 32 32 32 32 33 32 32 32 32 32 33 31 30 31 30 30 30 30 30
39 41 42 43 44 44 44 45 44 43 46 46 45 44 43 41 39 37 36 35 37 36 35 35 34 34 34 34 34 35 34 33 33 31 33 30 27 29 31 34 35 32 32 32 32 32 32 32 32 32 32 32 32 33 32 31 30 31 31 30 30 30 30

ECMWFFLT1_sfc_dewp_021.txt.gz
Dewpoint
52 50 52 54 55 55 55 55 56 56 56 55 56 55 55 53 52 51 49 49 51 53 54 54 55 56 56 58 58 59 60 59 59 58 58 58 57 57 60 59 60 60 60 59 58 55 52 52 54 58 60 61 62 62 63 63 64 64 63 63 64 65 64
53 54 54 54 54 56 55 55 52 52 54 54 53 52 52 53 53 51 51 50 48 49 52 51 53 54 55 55 55 55 55 56 58 58 58 57 57 57 58 58 59 59 59 58 58 56 53 52 52 54 55 60 61 62 62 62 63 64 64 64 64 64 63
53 52 53 53 54 54 53 52 50 51 51 51 52 51 51 52 52 51 50 50 52 53 53 52 52 52 52 52 53 54 55 54 54 54 55 55 54 54 55 54 54 57 57 57 56 55 55 55 52 52 50 50 53 58 61 62 62 63 64 64 64 65 65
51 52 52 52 54 53 53 52 52 52 50 51 51 52 52 52 52 54 52 53 53 55 53 50 50 52 53 52 53 53 53 53 51 51 50 51 52 49 49 51 51 50 49 49 49 50 49 48 48 48 46 42 42 44 55 62 62 63 64 64 64 64 64
52 52 52 52 53 52 52 53 53 52 52 52 52 51 49 51 52 53 53 52 53 50 50 52 52 51 52 52 52 51 50 51 52 52 51 50 50 50 50 50 50 49 49 48 50 50 49 47 48 46 45 43 43 42 43 61 62 62 63 64 64 63 63
52 52 52 53 53 52 53 53 51 51 52 52 52 50 50 52 52 51 50 50 51 53 51 49 51 51 50 50 51 52 52 51 51 50 50 50 50 49 50 49 49 49 48 49 49 49 50 49 48 45 45 45 44 45 41 40 49 60 61 60 61 61 61
52 52 52 52 53 52 54 52 52 51 51 51 52 51 53 51 53 54 53 52 52 52 51 51 52 52 51 51 52 52 52 52 52 51 51 50 50 49 50 50 47 48 47 48 48 48 47 46 46 46 46 46 47 44 43 41 41 38 39 43 49 57 60
53 52 53 53 54 53 54 53 53 52 51 52 53 52 54 53 52 51 50 52 52 51 52 52 53 52 52 51 52 52 51 50 50 51 50 49 49 48 48 49 48 47 47 48 48 49 49 48 47 47 46 44 44 46 44 43 43 41 40 41 41 44 51
54 53 54 54 54 53 54 53 54 52 52 52 54 52 53 54 53 52 52 51 51 51 50 50 51 51 50 50 50 49 49 53 51 51 51 51 49 49 48 48 44 44 48 49 48 48 49 49 49 48 47 46 43 42 44 44 44 44 43 42 41 42 42
53 52 53 52 54 54 54 52 55 53 53 53 53 52 53 54 53 51 51 51 51 51 50 51 50 50 52 51 51 51 50 49 50 50 50 49 48 47 47 48 46 45 47 49 48 49 49 48 49 48 47 45 45 44 42 42 44 44 43 44 42 42 42
53 53 53 51 52 55 53 52 55 55 53 53 53 53 53 55 53 56 52 51 51 51 50 51 51 51 52 50 51 50 50 51 50 49 49 49 48 49 49 46 48 44 47 48 48 49 50 47 48 48 47 47 47 44 44 42 43 45 44 45 44 43 43
54 52 55 52 52 54 53 52 53 55 54 54 53 52 53 54 53 53 53 51 51 51 52 50 50 49 51 50 51 50 50 49 49 48 49 50 49 50 47 45 47 47 46 46 48 51 50 49 45 46 45 46 48 46 44 44 41 45 46 43 45 44 42
55 53 55 53 52 52 54 53 53 54 55 54 52 51 53 54 53 53 53 52 52 51 51 51 50 48 50 48 50 49 48 51 49 47 45 47 48 48 46 47 46 46 46 47 45 45 44 46 48 46 45 46 46 47 47 45 42 42 46 45 44 43 42
56 57 55 54 54 54 54 54 54 53 56 54 53 52 52 54 54 53 53 53 52 52 51 50 50 48 49 49 48 49 47 49 48 47 47 46 47 47 47 47 47 48 47 45 44 45 45 43 43 46 47 45 45 47 42 42 41 42 44 47 45 44 43
56 57 57 56 55 55 55 56 56 56 54 54 54 53 52 53 54 53 52 53 52 52 51 51 51 50 48 49 46 51 48 47 48 48 46 43 45 47 44 46 47 45 45 45 46 44 44 43 39 39 42 43 41 42 43 42 41 40 40 44 44 44 44
56 56 55 56 57 57 57 57 57 56 55 55 54 55 53 53 53 53 52 52 52 52 51 51 51 50 49 50 47 49 49 46 46 47 45 45 46 46 45 46 44 46 48 45 44 45 45 43 42 40 40 42 40 42 42 43 42 42 42 43 45 44 44
57 57 57 56 56 56 56 56 56 55 54 54 54 55 55 54 54 53 52 52 52 52 51 51 51 50 50 50 49 50 48 47 47 48 46 46 46 45 45 46 45 47 46 43 45 44 45 43 42 42 41 42 41 42 43 43 41 40 41 39 41 39 40
56 57 57 57 57 57 57 58 57 56 56 55 57 56 55 54 53 53 53 52 51 51 52 51 50 50 50 50 50 50 47 47 47 48 46 46 49 45 46 46 46 46 45 44 44 44 43 44 43 43 42 42 42 43 44 44 43 42 41 40 41 42 42
56 56 57 56 56 58 58 58 58 58 58 57 56 56 55 55 53 53 53 53 52 51 51 52 52 50 50 50 50 49 48 47 47 48 47 47 46 46 46 44 45 44 44 42 44 44 45 44 44 42 41 39 37 39 39 39 40 39 38 38 39 39 40
55 56 55 55 54 55 57 58 57 56 57 56 56 56 56 55 55 54 53 53 52 55 55 54 55 55 53 50 50 49 48 47 47 48 47 47 44 46 45 45 45 44 43 44 44 43 42 42 42 39 40 38 38 39 39 39 39 38 38 38 39 39 39
45 50 53 55 55 54 56 57 56 56 56 55 55 55 55 55 55 55 54 53 54 54 55 54 54 55 55 53 50 49 48 47 47 47 47 46 45 45 45 45 45 44 44 42 39 40 39 37 38 35 37 40 40 38 38 39 37 36 36 36 36 36 37
49 47 47 48 53 55 56 57 57 56 56 56 56 56 55 55 55 56 55 55 54 54 55 55 56 55 54 53 51 49 49 47 47 46 46 45 45 44 43 43 43 43 44 44 42 41 42 41 34 28 35 38 39 36 36 36 36 35 34 34 33 34 34
47 47 46 46 48 48 55 57 56 55 55 56 56 56 56 56 56 56 55 55 55 55 55 55 54 51 50 54 53 50 50 48 47 46 45 44 43 42 42 42 48 49 44 42 40 39 37 37 40 39 35 34 35 35 35 34 34 35 35 34 33 33 33
48 48 48 47 47 49 50 53 56 56 55 55 55 55 55 55 55 55 55 54 54 54 55 55 49 46 46 47 52 51 49 48 47 46 44 42 41 41 42 43 45 43 41 41 40 37 36 36 36 37 38 39 41 36 34 34 34 35 35 35 34 34 33
46 46 48 48 48 49 49 49 50 53 55 55 55 55 54 55 55 54 54 54 54 54 54 51 47 46 45 44 46 51 49 47 47 46 44 42 42 41 40 43 43 42 38 38 38 37 37 37 36 36 36 37 37 37 38 36 35 34 34 34 34 34 34
36 38 42 42 43 43 42 43 44 47 50 54 55 55 55 55 55 54 54 53 53 53 53 49 46 45 44 43 42 47 48 47 46 45 44 43 41 41 41 42 43 42 42 46 45 38 36 36 37 37 37 37 37 36 35 35 37 38 36 35 35 35 35
37 39 41 41 41 39 40 39 42 42 43 45 48 51 54 54 54 53 54 54 53 52 51 48 44 44 43 41 40 45 47 46 44 44 44 42 42 41 41 41 42 42 42 43 43 40 39 38 38 38 37 37 37 38 38 37 36 36 37 37 35 35 36
40 40 40 41 41 40 41 42 43 44 43 44 45 46 46 48 50 50 51 52 52 49 48 40 39 39 39 40 41 44 45 44 42 43 43 43 42 40 40 42 40 40 42 42 42 40 39 37 39 40 38 38 38 38 38 38 38 38 38 38 36 36 36
39 39 39 40 38 38 39 40 39 40 41 42 45 45 46 48 48 49 50 49 47 44 39 37 37 37 38 38 41 45 43 43 42 44 41 41 40 40 40 39 39 38 39 40 41 38 39 39 37 36 36 36 36 36 36 39 38 38 39 39 39 38 38
40 38 39 38 37 39 39 40 39 41 39 40 41 43 45 45 47 48 47 46 45 41 37 36 36 37 38 39 40 42 40 39 38 38 39 40 41 41 41 41 40 39 40 38 39 34 34 36 34 34 34 34 35 35 36 37 38 37 37 36 36 36 36
37 39 40 38 39 40 41 40 40 40 39 40 40 42 45 45 45 46 47 45 44 39 35 35 36 37 37 38 40 41 38 38 37 37 39 41 40 40 42 47 44 40 39 39 34 34 35 39 36 36 35 35 34 34 34 36 37 36 36 35 35 34 34
39 40 39 39 40 40 40 40 40 41 41 41 41 41 44 43 42 42 44 43 43 37 32 34 36 36 36 37 39 38 38 37 37 38 38 39 40 40 36 39 40 39 38 36 33 33 34 35 33 33 33 32 32 32 33 33 33 32 32 31 31 32 32
37 37 37 39 41 41 42 42 41 41 41 41 42 41 42 42 40 39 40 41 39 33 31 32 35 34 35 37 38 39 38 36 35 33 32 32 32 32 35 34 35 34 33 33 33 33 33 32 31 31 31 29 29 29 32 32 33 32 31 31 31 31 32
38 41 40 40 41 42 42 41 42 42 42 42 41 41 41 40 39 38 38 36 33 31 31 31 32 34 35 36 36 36 35 35 33 30 29 29 29 31 33 34 34 34 33 33 33 32 32 32 32 32 30 30 30 32 33 31 32 33 32 32 33 33 32
39 41 41 42 41 42 43 43 42 42 42 42 41 41 38 38 37 36 35 34 32 32 35 34 29 32 33 35 36 36 34 34 33 30 30 29 29 30 32 34 33 34 33 33 32 32 32 32 33 34 32 33 32 33 33 33 32 32 31 31 31 31 31
40 43 42 41 41 41 42 41 42 42 42 41 41 39 38 37 35 33 32 32 32 32 32 33 33 30 32 32 34 35 34 32 33 32 30 30 32 31 34 35 35 35 32 32 32 32 32 33 34 33 33 33 33 33 33 32 32 31 31 31 31 30 30
38 38 39 40 41 41 42 42 41 42 41 42 41 39 37 37 35 33 32 32 32 31 31 31 34 33 31 31 32 32 33 33 34 35 35 34 33 35 36 37 36 33 33 33 33 33 33 33 32 33 33 33 33 33 32 32 30 31 31 31 31 31 31

ECMWFFLT1_sfc_dewp_024.txt.gz
Dewpoint
51 52 53 52 52 53 54 53 53 53 54 54 53 52 51 52 51 51 52 53 53 54 56 55 55 56 57 58 58 58 58 58 57 57 57 59 57 57 58 57 58 59 59 58 55 53 52 51 53 55 58 60 60 61 62 62 62 62 62 63 63 64 64
52 53 54 54 54 54 52 51 52 51 51 51 51 51 51 51 53 50 50 50 52 53 54 52 53 54 54 54 54 54 54 55 57 57 57 56 56 56 58 57 58 58 58 57 56 55 52 51 51 52 53 55 58 61 61 61 61 62 62 63 63 64 64
53 53 54 54 53 52 50 49 49 49 50 50 50 51 50 50 50 51 51 51 52 53 53 51 51 52 52 53 53 53 52 52 52 54 54 52 51 52 55 57 57 58 56 53 52 54 54 52 50 52 49 45 46 50 58 60 61 61 61 62 63 64 64
53 53 53 53 53 50 49 49 49 49 49 49 50 50 50 52 53 54 52 52 53 54 52 51 52 53 52 51 51 51 51 50 50 50 50 50 50 50 50 51 52 53 50 47 47 49 49 46 46 46 47 45 43 43 46 56 60 61 61 61 62 61 62
52 52 52 52 52 50 49 49 49 49 49 49 48 47 49 51 51 50 51 50 51 51 51 52 51 51 51 51 51 51 50 50 50 50 49 48 48 48 48 48 48 48 48 48 49 49 47 47 46 45 45 44 44 43 43 45 58 59 59 59 62 63 62
52 52 52 52 51 50 51 50 49 49 49 48 47 48 49 49 50 48 49 49 50 51 50 50 50 51 51 52 52 51 51 50 49 49 48 48 48 47 47 48 48 47 48 48 48 47 47 47 46 44 45 45 43 45 44 42 43 43 42 42 48 60 61
52 52 52 52 52 52 51 50 49 49 49 48 48 48 49 50 50 50 50 50 50 50 51 51 51 51 51 51 51 50 50 49 50 49 48 48 48 47 47 46 46 47 47 48 47 47 46 46 44 44 44 45 45 45 44 42 43 41 42 42 42 44 52
52 52 53 53 52 52 51 50 50 50 50 50 49 49 51 51 50 50 49 49 49 50 51 51 52 51 51 51 51 50 49 49 49 50 47 47 47 47 46 46 47 47 47 47 47 48 48 47 46 45 44 41 42 43 44 45 44 42 42 43 42 41 42
54 53 53 53 52 53 51 50 50 50 51 51 50 51 51 50 49 50 50 49 49 49 50 50 50 49 49 49 48 49 49 52 50 49 48 46 46 46 45 45 46 46 47 47 47 47 47 47 47 47 46 43 41 40 43 42 43 43 44 43 43 43 42
53 52 52 53 53 53 52 51 50 51 51 51 51 52 52 50 50 50 49 49 48 49 49 50 50 49 49 50 49 48 48 49 50 47 47 47 46 46 46 44 45 45 47 47 46 48 47 46 47 46 45 44 44 41 41 40 41 42 43 44 42 43 42
53 53 53 53 53 53 53 52 51 51 51 52 52 53 52 51 50 54 49 49 49 49 49 49 49 49 49 49 48 47 47 49 49 48 49 47 47 47 47 45 44 44 45 46 46 48 48 47 45 45 45 46 45 42 41 40 40 43 43 44 44 42 42
53 53 53 53 54 53 52 53 52 52 52 52 52 53 52 51 51 50 50 49 49 49 49 49 49 50 49 49 48 48 48 47 46 46 48 47 48 47 46 46 45 45 46 45 45 45 45 46 46 45 44 45 46 44 43 42 38 42 45 42 44 45 42
55 55 53 52 54 53 52 53 53 52 52 53 51 52 52 51 51 50 50 50 50 49 49 49 48 49 49 49 49 48 47 48 47 46 45 46 48 46 46 45 45 44 44 44 44 44 44 43 47 46 45 45 45 45 45 42 39 40 44 43 44 43 43
54 54 54 52 53 53 52 53 53 52 53 52 51 52 52 52 51 51 50 50 50 50 50 49 48 48 48 47 48 47 48 48 46 45 46 44 47 47 48 47 46 46 45 44 44 44 44 43 41 43 44 43 42 43 42 40 38 40 41 44 44 44 45
53 53 53 52 52 53 53 53 54 54 52 52 51 52 53 52 52 52 51 50 50 50 50 50 49 47 49 47 48 48 47 48 46 46 45 44 44 46 45 46 46 43 45 44 44 43 44 42 39 39 41 42 41 42 43 41 40 40 39 42 43 43 42
55 55 55 54 54 55 55 54 55 53 53 53 52 51 53 53 52 52 52 51 50 50 50 50 50 47 47 48 46 49 47 47 47 47 45 43 44 45 44 45 43 45 47 43 44 44 44 42 42 41 42 42 42 42 43 42 40 39 39 40 43 39 40
55 55 55 55 55 55 55 55 55 54 54 54 53 53 52 53 53 52 52 52 51 50 50 50 50 49 47 48 46 48 48 46 46 47 45 44 45 44 44 45 45 46 46 43 44 44 44 43 43 42 41 41 41 40 42 41 42 39 39 38 40 39 40
53 54 55 56 55 55 55 55 55 54 55 55 55 54 53 53 53 53 52 52 52 51 51 50 50 49 48 48 48 47 48 46 46 47 45 45 47 44 45 44 45 46 44 43 44 43 44 43 42 40 38 37 38 40 40 40 40 39 37 36 38 41 40
54 55 54 54 55 55 55 56 55 54 53 55 55 54 54 54 53 53 52 52 52 52 52 51 50 49 49 49 49 48 48 47 46 47 46 45 47 44 44 45 46 46 43 42 43 44 43 42 40 37 36 37 38 39 39 38 38 37 36 36 36 37 38
55 54 55 54 54 53 53 54 54 55 55 55 55 54 53 53 53 53 53 53 52 52 52 52 51 50 49 49 49 49 48 47 46 47 46 45 46 45 45 45 44 44 42 43 43 42 41 40 38 38 40 39 39 37 37 37 36 33 34 32 34 35 33
53 54 54 54 53 53 54 54 53 53 54 53 53 53 54 54 54 54 54 53 54 53 53 53 53 52 51 50 50 49 49 47 46 47 46 46 45 45 45 44 44 43 43 43 42 42 38 33 36 35 39 39 38 36 36 36 34 33 33 33 33 32 34
48 50 53 54 53 52 53 53 53 52 52 52 53 53 53 53 53 53 53 53 53 53 53 53 53 53 53 53 50 50 49 48 47 46 46 46 44 43 43 43 43 43 45 46 44 41 39 37 31 29 37 39 37 36 35 35 35 34 34 34 33 34 34
45 45 46 47 48 49 52 52 52 52 53 52 52 52 52 52 52 52 53 53 53 53 53 53 53 50 50 53 52 51 50 49 47 47 46 45 44 43 43 43 45 50 48 44 39 37 37 39 39 33 32 35 37 35 34 33 34 34 35 34 33 33 33
45 43 43 43 44 45 47 51 52 52 52 52 51 51 52 52 52 53 53 53 53 53 53 54 49 46 45 47 52 52 51 50 49 47 46 45 43 43 42 42 45 46 43 40 37 36 36 38 39 39 39 39 39 35 34 33 33 34 35 34 34 33 33
45 45 45 45 45 46 47 47 48 50 51 52 52 51 51 52 52 51 52 52 52 53 53 51 47 46 44 44 47 52 52 50 49 48 46 45 43 42 41 43 43 42 37 35 34 35 37 37 37 37 37 37 38 39 39 35 35 33 33 33 33 34 33
44 42 43 44 44 45 45 46 46 46 48 50 50 51 52 50 52 51 51 51 52 52 52 49 46 45 45 44 43 47 51 50 48 47 46 44 43 42 42 43 42 41 39 44 44 36 36 36 37 37 37 38 37 36 35 35 37 37 34 34 34 34 33
38 39 41 41 41 40 40 40 41 42 43 44 47 48 49 50 50 50 51 51 52 51 52 49 46 45 44 43 42 43 50 50 48 47 46 44 43 41 42 42 41 41 42 43 40 37 37 38 38 37 37 36 36 38 38 36 36 36 38 36 34 34 35
38 39 39 39 39 39 39 38 38 39 40 41 42 43 44 46 48 49 49 50 50 50 47 39 41 42 42 42 42 41 47 47 46 46 46 45 44 44 43 44 42 41 41 42 43 40 40 39 39 39 36 36 36 36 36 37 37 37 37 36 36 35 36
39 39 39 38 37 37 38 38 37 39 38 38 39 40 40 43 44 44 46 47 48 46 37 37 38 39 39 39 40 44 44 44 44 44 44 43 44 45 44 42 42 41 42 42 42 39 39 39 39 39 39 37 36 35 36 39 38 37 38 36 36 36 36
39 38 38 36 36 36 37 36 36 39 36 37 37 38 38 39 42 45 44 46 45 37 35 36 37 38 38 39 41 42 42 41 41 40 41 41 41 40 40 38 38 39 40 39 37 35 35 38 37 37 36 35 35 34 35 36 37 36 36 35 35 34 34
39 38 38 36 37 37 38 38 38 39 37 37 37 37 38 41 40 42 43 44 44 40 34 36 38 38 39 39 40 40 39 39 38 39 39 40 40 40 44 47 44 40 37 37 35 36 36 37 34 34 33 32 31 31 31 33 35 35 35 35 34 34 34
39 39 38 38 38 38 39 38 37 39 39 39 39 39 40 39 38 38 40 42 45 38 34 36 37 37 38 38 39 38 37 36 36 37 38 36 35 36 35 40 42 38 36 35 34 34 34 34 32 31 31 29 29 28 29 30 31 31 31 31 31 32 32
39 39 38 38 38 39 39 39 39 39 39 40 40 38 38 36 36 36 37 37 36 34 35 35 36 37 37 37 38 39 37 36 35 33 32 32 34 34 34 34 36 34 33 33 32 33 33 33 31 32 32 28 27 28 29 30 32 30 29 30 30 30 32
36 38 39 38 38 38 39 39 39 40 39 39 38 37 36 35 36 35 34 33 32 32 34 33 35 36 36 37 36 36 34 33 31 30 30 31 32 33 32 33 34 34 33 33 33 33 33 34 34 34 32 30 30 32 33 29 31 34 30 31 32 32 32
38 39 39 39 38 39 39 39 39 40 39 37 37 36 34 34 33 32 32 32 32 32 35 37 35 36 36 36 35 34 33 32 31 29 30 30 32 32 32 32 32 33 33 33 33 33 32 32 33 37 34 32 33 33 31 32 31 30 31 31 30 31 31
37 40 40 39 38 38 39 40 39 38 38 37 37 35 34 32 32 31 30 30 30 31 31 33 35 35 35 34 33 33 33 32 33 32 31 32 33 34 34 32 35 34 33 33 33 32 32 33 34 32 33 33 33 33 33 31 30 30 30 29 30 30 30
39 38 37 37 37 37 37 38 39 40 38 38 37 35 33 32 31 31 30 29 30 30 30 30 33 34 33 33 33 33 33 34 34 35 34 34 34 35 34 35 36 34 34 33 33 33 33 33 32 33 33 33 33 34 31 30 29 30 30 29 29 30 30

ECMWFFLT1_sfc_dewp_027.txt.gz
Dewpoint
51 51 51 51 51 53 52 51 51 51 51 51 50 51 53 54 53 53 53 54 55 55 56 55 55 55 57 58 57 56 57 56 56 58 58 60 57 57 58 56 57 59 59 57 54 52 50 50 53 56 56 56 59 60 61 61 60 60 60 62 63 63 63
52 53 52 53 52 51 50 50 50 49 50 50 50 50 51 52 53 51 52 52 52 53 55 53 53 54 53 53 53 53 53 54 55 55 57 58 57 57 57 57 58 57 56 55 55 54 51 50 51 51 51 53 54 54 55 58 60 60 61 62 62 63 63
52 51 52 51 50 49 49 48 48 49 49 49 50 50 50 50 51 52 52 52 52 53 53 52 52 52 52 51 51 51 51 52 52 53 52 50 52 55 57 57 57 56 51 49 49 52 52 50 50 49 49 44 43 46 50 55 57 59 60 60 61 62 62
52 52 52 51 49 48 48 47 48 48 48 48 49 50 51 52 52 53 52 52 52 55 53 52 51 50 49 50 50 50 50 49 49 49 49 49 49 50 52 54 54 53 48 47 46 48 47 45 44 44 46 45 44 43 44 47 46 43 47 57 61 60 60
52 52 52 52 50 48 47 47 48 48 47 47 47 49 49 50 51 50 51 50 51 50 50 50 50 50 50 50 50 50 49 49 49 49 47 47 47 47 47 48 48 48 48 48 48 48 47 46 45 44 44 45 44 43 45 46 44 42 41 44 51 56 57
52 52 52 51 50 49 48 47 47 47 46 46 46 48 47 48 50 49 49 50 50 51 50 50 49 50 51 50 50 49 49 48 48 48 48 46 47 46 46 46 47 47 47 47 48 47 46 46 44 42 43 45 43 44 44 43 43 42 42 41 41 43 44
52 53 52 52 50 49 49 48 47 48 47 45 46 47 48 48 48 49 49 49 49 49 50 50 50 50 50 50 49 49 48 47 47 47 47 47 47 45 45 46 46 46 46 46 46 46 45 44 43 42 42 42 43 43 45 44 44 41 42 42 41 41 42
52 53 52 52 51 50 49 48 47 48 47 46 47 47 50 48 48 48 48 49 49 50 50 51 51 50 50 49 49 49 49 47 48 48 46 46 46 45 45 45 46 46 46 45 45 46 46 45 45 43 41 37 37 41 43 44 44 42 43 44 42 41 42
53 53 53 52 51 50 49 49 48 48 48 48 47 49 49 48 47 48 48 48 49 49 50 49 49 49 48 48 47 48 49 50 46 46 45 45 45 44 44 44 46 44 45 46 46 46 45 46 46 45 44 41 37 33 41 39 42 41 43 42 43 43 42
53 52 52 52 52 51 49 49 49 49 49 49 49 50 48 47 48 47 47 47 48 49 49 48 48 48 48 49 48 48 47 46 47 45 45 45 44 44 44 44 44 44 44 45 45 47 46 45 45 44 44 42 41 39 38 37 38 42 41 43 40 41 42
53 53 54 53 52 52 50 49 49 49 50 50 50 51 49 48 48 53 47 47 47 48 48 47 47 47 48 47 47 47 47 47 48 46 47 46 45 45 45 44 44 44 44 44 43 44 45 44 44 44 45 44 42 40 39 37 38 41 42 42 43 41 42
53 53 53 53 53 52 52 51 50 50 49 50 51 50 48 48 48 48 47 47 47 47 47 47 48 48 48 47 46 47 46 46 46 45 46 46 46 45 45 44 43 44 44 44 44 43 43 45 45 44 44 45 45 43 41 39 35 39 44 41 43 44 43
53 53 54 54 53 53 52 52 51 50 51 52 51 51 50 49 49 48 47 47 47 47 47 47 47 47 46 46 47 47 46 46 46 45 45 46 45 45 44 44 43 42 43 43 43 43 42 42 43 42 42 42 43 43 43 40 37 38 42 42 43 42 43
53 53 54 54 53 53 53 52 51 51 51 51 51 51 50 50 50 49 48 48 47 47 47 47 46 47 46 46 46 46 45 45 46 44 45 45 45 44 45 45 44 43 44 43 43 43 42 41 41 42 42 42 42 42 41 39 38 39 40 43 43 43 42
53 54 54 55 54 53 53 52 52 51 51 51 51 51 51 50 50 49 48 48 48 48 48 48 47 47 48 46 45 46 47 45 44 44 44 44 44 45 44 44 43 43 43 43 43 42 41 40 40 41 42 41 41 41 42 39 39 38 37 40 41 40 39
53 53 54 55 53 53 53 53 53 52 51 51 52 51 52 51 50 50 49 49 49 49 49 48 47 47 47 47 47 46 47 46 45 44 43 43 44 44 44 44 42 43 44 43 43 43 42 42 41 40 41 41 39 41 41 40 37 36 37 37 39 37 38
54 54 54 54 54 55 55 55 55 55 54 52 51 51 52 52 52 51 50 50 49 49 49 49 49 47 47 47 47 47 47 46 46 45 45 44 44 44 44 43 42 44 44 43 42 42 43 42 41 39 38 39 39 39 40 40 39 37 37 34 37 38 37
54 53 53 54 54 55 55 55 55 55 55 54 54 54 53 53 52 52 51 51 50 49 50 49 49 49 47 47 47 47 47 46 46 46 46 44 46 43 44 43 43 45 43 43 42 42 42 40 39 37 36 38 38 40 39 38 37 35 32 29 32 38 36
53 53 53 53 54 54 55 54 54 54 55 55 55 55 54 54 54 53 52 51 50 51 51 50 50 49 49 48 47 46 47 47 46 46 46 45 45 44 43 44 45 45 43 42 43 43 41 39 37 36 36 36 37 37 35 35 34 33 31 31 32 32 34
52 53 54 53 53 54 55 54 54 54 54 54 54 54 54 54 54 53 53 52 52 52 51 51 51 50 50 49 48 48 47 47 46 46 46 46 45 45 44 44 45 45 43 43 43 42 40 39 38 37 38 37 36 34 34 34 33 33 33 32 33 33 34
53 52 53 53 53 53 53 53 53 53 53 53 53 53 53 54 54 53 53 53 53 53 52 52 52 51 50 50 49 48 48 48 47 46 46 46 46 45 44 45 45 45 43 43 43 42 39 36 37 37 38 36 35 33 33 34 34 33 33 33 33 32 33
53 52 53 53 53 53 53 53 53 52 53 53 54 54 54 53 53 52 52 52 52 52 51 52 53 52 52 51 50 49 49 48 48 47 46 46 46 46 45 45 44 44 45 47 45 43 40 37 33 34 37 35 35 34 34 34 35 34 33 33 32 34 33
52 51 51 52 53 53 53 53 53 52 53 53 52 52 52 53 53 53 52 51 51 51 51 52 52 49 50 52 51 50 50 49 48 48 47 46 46 45 45 45 46 48 48 47 44 40 37 37 38 34 34 35 35 33 33 34 34 34 34 32 32 32 31
49 51 51 51 50 50 51 52 52 52 52 51 52 51 52 52 53 52 51 51 51 51 52 52 49 47 45 47 51 50 50 50 49 48 48 47 46 45 44 44 44 48 47 45 41 36 36 36 36 37 38 38 36 34 33 33 33 34 36 32 32 32 31
45 45 46 47 45 45 46 48 50 52 52 52 51 51 51 52 51 50 51 51 51 51 51 50 47 47 45 44 47 50 51 50 50 49 49 48 47 46 44 43 45 46 41 36 31 32 35 36 36 36 36 37 37 38 38 36 37 34 33 32 32 32 32
44 44 44 45 45 45 45 46 46 45 46 47 48 49 50 49 50 50 50 51 50 50 50 49 46 46 45 44 43 46 50 50 50 50 49 48 47 46 44 44 44 43 39 42 39 33 33 35 37 37 37 37 38 37 36 36 38 37 34 33 33 32 32
39 39 39 40 41 41 41 40 40 41 41 42 44 45 45 46 46 46 47 48 48 48 47 46 42 42 42 42 42 42 47 49 49 49 49 48 47 46 43 43 42 40 41 41 37 37 36 35 36 37 37 36 36 38 38 36 35 36 38 35 34 32 33
38 38 38 39 38 38 38 37 38 39 39 39 39 39 40 42 43 45 45 46 45 46 46 39 40 41 41 41 41 41 45 46 46 46 45 45 44 44 43 43 41 40 40 39 40 38 38 38 38 38 37 37 36 36 36 36 36 35 37 35 34 34 34
37 37 37 37 37 37 37 36 37 38 37 36 37 36 37 39 39 41 42 43 45 45 41 37 37 38 40 41 41 42 42 43 43 42 41 42 42 43 44 42 41 40 40 40 41 38 40 40 39 38 38 36 35 34 36 38 38 38 38 35 34 34 34
38 37 37 36 35 36 35 34 35 38 36 35 36 37 37 38 39 39 42 42 43 42 38 37 37 38 39 39 41 41 41 41 40 40 39 40 40 41 41 42 42 41 42 40 38 37 37 39 38 37 35 33 33 32 33 34 37 36 36 36 35 36 35
38 38 37 36 35 35 36 37 36 37 35 36 38 38 39 37 37 39 41 42 40 41 38 36 37 37 38 39 41 41 40 40 39 39 38 37 37 39 43 45 43 39 37 37 36 36 36 37 35 34 33 32 30 29 30 30 33 33 35 34 34 34 34
38 38 37 37 37 36 37 37 36 37 37 38 37 38 38 37 35 36 36 37 43 36 34 36 38 37 38 39 40 39 38 38 37 36 35 34 34 35 36 39 40 38 36 36 34 34 34 35 33 32 31 30 28 26 28 28 29 30 30 31 30 32 32
39 39 38 37 38 38 38 38 37 37 36 37 37 35 35 35 34 33 32 32 33 33 33 33 36 37 38 38 38 38 37 37 36 34 34 34 33 33 33 33 36 33 33 33 33 33 34 34 31 31 30 28 26 26 28 29 33 31 29 30 29 29 31
39 39 39 38 38 39 38 37 37 37 37 36 36 35 34 33 33 31 31 31 31 32 35 33 35 37 37 37 37 37 36 35 34 33 33 33 32 32 32 32 33 34 33 33 33 33 34 34 34 32 31 30 31 31 31 28 30 34 30 31 30 31 31
38 38 38 38 37 37 37 37 36 37 36 35 35 34 32 32 31 29 30 30 31 30 35 39 34 36 36 36 35 35 33 32 32 32 32 32 32 32 31 31 32 34 33 33 33 33 33 33 34 36 33 32 32 32 31 33 30 30 29 30 28 29 29
38 39 38 39 38 36 37 38 37 37 36 35 35 33 32 31 30 29 28 29 29 30 30 34 36 34 35 35 34 34 33 32 33 33 31 31 32 32 33 32 35 35 33 33 33 33 33 33 34 33 33 33 33 33 33 31 31 30 29 28 28 29 28
37 37 39 38 37 36 36 36 37 37 35 36 34 33 30 31 30 29 28 28 29 29 29 30 34 34 34 34 34 33 34 34 34 34 34 32 32 32 32 33 35 34 33 33 33 33 33 34 32 32 33 33 33 34 33 31 29 29 29 28 28 28 28

ECMWFFLT1_sfc_dewp_030.txt.gz
Dewpoint
51 51 51 51 52 54 51 51 50 50 51 51 53 53 55 56 55 55 55 56 56 57 58 57 58 59 59 59 59 59 60 60 60 60 59 60 58 58 59 59 58 58 58 57 56 54 53 53 54 57 58 57 55 55 58 60 61 62 61 62 63 64 64
51 52 53 53 51 51 50 49 49 49 50 50 51 52 53 54 56 53 54 54 55 55 56 54 54 54 55 55 56 56 57 57 58 59 60 59 58 58 58 58 58 57 55 55 56 56 54 53 51 52 51 55 51 51 53 56 60 61 62 63 64 64 64
53 51 51 51 49 49 48 48 48 49 49 50 50 51 51 52 52 53 52 53 53 55 55 52 52 52 52 52 52 53 54 53 53 55 57 56 57 58 58 57 56 56 53 53 53 53 51 52 50 46 49 46 45 47 50 52 51 57 60 62 61 62 62
51 51 51 50 49 48 48 47 48 48 48 49 50 51 51 52 53 54 52 53 54 56 53 51 51 50 50 51 51 50 50 50 50 50 51 52 54 55 56 56 56 54 52 51 48 49 49 47 50 50 47 46 43 45 47 48 45 42 43 50 52 52 55
52 51 51 50 49 48 47 48 47 47 47 48 49 50 50 51 52 51 53 51 52 51 51 51 51 50 51 50 50 50 49 50 50 50 48 48 49 49 49 49 49 50 50 50 50 49 48 48 50 48 50 52 42 44 45 50 44 42 42 42 42 44 45
52 52 51 50 49 48 48 48 47 47 47 47 48 48 49 49 51 50 50 50 50 51 51 51 51 51 50 50 49 49 49 48 48 48 47 47 48 47 47 48 48 48 48 49 49 47 47 47 47 45 44 45 45 44 44 45 45 44 43 42 42 43 43
52 52 52 51 50 49 48 48 47 47 46 46 47 48 48 50 50 51 50 50 50 50 51 50 50 50 50 49 49 48 48 48 48 48 47 47 47 47 48 47 47 47 48 48 47 47 46 46 45 44 45 43 45 43 44 43 43 42 43 43 42 42 43
53 52 52 52 51 49 49 48 47 47 47 47 47 48 51 49 49 49 49 49 50 50 51 51 51 50 50 49 49 49 49 48 48 48 47 47 47 46 47 47 48 47 47 47 47 47 47 47 46 45 44 41 41 42 43 41 42 42 43 44 42 42 43
54 53 53 52 51 50 49 49 48 48 48 48 48 49 49 49 48 49 49 49 49 50 50 49 49 49 49 49 49 48 48 49 47 46 46 46 46 47 47 47 47 46 47 47 47 47 47 47 47 46 44 42 40 37 41 41 43 41 42 41 42 42 42
53 53 53 52 51 51 50 49 49 49 49 49 49 51 49 48 49 49 48 48 49 49 49 49 48 48 49 49 48 47 47 47 47 46 46 46 46 46 46 46 46 46 47 48 47 47 47 47 47 47 45 43 42 39 40 39 41 44 40 42 39 40 41
53 53 53 52 52 52 51 50 50 50 50 51 51 52 49 49 49 53 48 48 48 49 49 48 48 48 49 48 48 47 47 48 47 47 48 46 46 47 47 45 45 45 46 45 46 47 47 46 46 47 46 45 45 42 42 41 41 45 43 44 43 39 40
54 54 55 54 53 53 52 51 50 50 50 51 52 51 49 49 49 49 48 48 48 49 48 49 49 49 48 48 49 48 47 47 46 46 47 46 46 46 45 45 45 45 45 45 45 46 47 47 46 46 46 46 46 45 43 42 39 41 45 44 44 42 41
53 54 54 53 53 52 50 51 51 50 51 52 51 50 49 49 49 49 48 48 48 48 48 49 48 48 47 48 48 47 47 47 47 47 47 47 45 45 45 44 45 45 45 44 44 44 44 45 45 44 44 44 44 45 45 42 41 40 44 45 44 42 40
53 54 54 54 53 53 52 52 51 51 51 51 51 51 50 49 49 49 48 50 48 48 48 48 48 48 48 47 47 47 46 46 46 46 48 46 46 46 46 44 45 45 45 44 43 43 43 43 44 45 44 44 43 44 43 43 41 41 43 45 44 40 39
53 53 53 54 53 53 53 53 52 51 50 51 51 51 51 51 51 50 49 49 48 48 49 49 48 48 48 47 48 48 47 46 46 46 46 46 46 47 46 45 44 45 44 43 44 41 41 41 40 40 42 42 41 42 44 43 43 42 37 43 42 38 35
53 53 53 53 53 53 53 53 53 52 51 51 52 51 52 52 52 51 50 51 50 50 49 49 48 48 48 47 47 47 48 46 46 46 45 45 45 46 45 46 44 46 45 44 44 44 44 41 40 39 41 41 41 42 40 41 41 39 36 36 42 33 36
53 53 53 53 53 53 53 53 54 54 53 52 51 52 53 53 53 53 52 52 52 50 50 50 49 48 49 48 48 47 48 47 47 46 46 45 45 46 46 44 44 46 45 44 44 44 43 42 41 40 41 41 41 40 41 40 40 40 39 31 35 33 34
53 53 53 53 53 54 54 54 55 55 54 53 53 53 53 54 53 53 53 53 52 51 51 50 50 50 49 49 48 48 48 48 48 47 47 45 47 45 46 45 44 46 44 44 44 43 42 40 38 40 39 39 39 40 39 38 36 35 34 33 35 40 38
53 53 53 53 53 54 54 54 54 55 55 54 54 54 53 53 54 54 54 53 53 52 52 51 50 51 50 49 49 48 49 48 48 47 47 46 46 45 45 45 45 46 44 44 44 44 41 40 38 39 39 38 37 37 38 37 37 37 34 34 35 35 37
52 52 53 53 54 54 54 54 54 54 55 54 54 53 53 53 53 53 54 54 54 54 53 52 52 52 51 50 50 49 48 48 48 48 47 47 46 46 45 45 46 47 45 44 44 43 42 40 40 38 39 39 36 37 37 37 36 36 35 35 36 36 35
52 52 53 53 53 53 53 53 54 54 54 54 54 54 53 53 53 53 54 54 54 54 54 53 53 52 52 52 51 50 49 48 48 48 48 47 48 47 46 46 46 47 46 45 45 44 42 40 39 38 39 38 38 38 37 37 37 35 35 36 35 34 35
51 52 52 52 52 52 53 53 53 54 53 53 54 54 54 53 53 53 53 52 53 53 53 53 53 53 52 52 51 50 49 49 48 48 48 47 48 48 47 46 46 46 48 48 46 45 43 41 38 37 40 38 38 38 38 38 37 36 35 35 35 36 34
51 50 51 51 51 51 52 52 52 51 52 52 52 52 53 52 52 52 52 52 52 52 52 53 52 49 49 52 52 51 50 50 50 49 49 49 48 48 47 47 48 49 48 48 45 42 40 39 39 38 36 38 38 38 38 37 36 35 35 35 34 35 34
50 50 49 50 50 51 51 52 52 52 51 51 52 52 52 51 52 52 52 52 52 52 52 52 48 46 45 46 51 51 51 51 50 50 49 49 48 49 47 46 47 49 48 47 45 40 38 37 37 37 38 38 38 37 36 36 37 38 41 36 36 36 35
49 50 49 49 49 49 50 50 51 51 51 51 51 51 50 51 51 51 51 51 51 52 52 50 46 45 44 43 46 51 51 50 50 50 50 49 49 49 49 48 46 48 47 47 44 40 38 37 37 37 37 37 37 37 38 39 38 37 38 38 38 38 38
46 46 46 47 46 46 47 48 49 49 51 52 51 51 51 50 50 50 50 51 52 52 52 47 42 42 41 42 41 46 51 51 51 50 50 50 49 49 49 48 46 47 45 46 43 35 33 36 37 37 38 38 38 37 35 36 38 39 38 37 38 38 36
44 43 43 43 44 44 44 44 44 44 45 47 48 48 50 50 50 50 50 50 51 49 49 46 41 41 40 40 40 42 49 50 50 50 50 50 49 49 48 47 46 45 43 43 37 34 34 36 39 37 38 39 39 40 38 36 36 37 39 39 38 39 39
41 40 40 41 42 42 42 39 41 41 42 43 44 44 44 45 46 47 47 47 47 48 47 41 38 38 39 39 39 40 47 47 48 48 48 48 48 48 48 47 46 44 42 40 38 36 36 36 37 38 38 39 39 39 39 39 39 39 39 38 38 39 38
39 39 39 38 39 39 39 40 40 39 39 39 39 39 39 41 41 41 41 42 43 43 43 39 37 37 39 39 39 44 45 46 45 43 42 43 44 45 45 45 44 42 41 40 39 37 38 39 39 39 39 38 37 37 38 39 39 39 40 39 38 38 38
39 38 37 37 37 37 37 37 38 39 38 38 39 40 40 40 38 39 41 41 43 41 41 39 37 37 38 38 41 43 43 42 41 40 39 40 41 43 44 43 42 41 41 41 39 37 38 39 40 40 38 37 36 36 36 36 37 36 36 36 36 36 35
39 39 38 36 37 38 38 38 38 40 39 40 41 40 40 39 37 38 40 41 42 42 40 37 37 38 38 39 41 42 42 41 39 38 37 37 38 39 43 45 43 40 39 39 36 36 37 39 39 38 36 34 33 32 31 33 35 36 35 35 35 34 34
39 39 38 38 39 38 38 38 39 40 39 41 41 41 40 38 36 35 36 38 41 36 35 37 38 38 38 39 41 41 41 39 38 36 36 35 36 36 36 39 40 39 38 38 35 35 35 37 37 36 35 34 32 31 31 33 34 34 34 34 33 35 35
40 39 38 39 39 38 40 40 39 39 38 39 39 38 38 36 35 33 33 33 35 36 36 35 38 37 38 39 39 41 40 39 37 35 35 35 35 34 35 35 36 34 34 34 34 34 34 34 35 34 33 32 32 31 32 34 35 34 33 34 34 34 34
40 41 40 40 39 41 40 39 39 39 39 37 38 37 35 35 34 32 32 32 32 34 38 36 37 37 38 38 38 38 39 38 36 36 35 34 34 33 33 33 34 34 33 33 33 33 34 34 34 34 33 33 34 34 34 33 35 34 34 35 34 34 34
38 39 40 40 39 39 39 39 39 39 38 38 37 36 35 34 33 31 30 31 33 32 36 39 37 37 37 37 37 37 38 37 36 35 34 33 32 32 32 33 33 34 33 33 33 33 34 34 34 35 34 33 33 33 36 36 34 34 34 33 33 33 32
38 39 39 39 38 38 39 40 39 40 39 38 38 36 35 34 33 31 31 30 30 31 33 36 36 36 35 35 35 35 35 35 34 36 34 33 33 33 34 34 35 34 33 33 33 33 34 34 34 34 33 33 33 33 35 35 34 33 33 32 32 32 31
38 38 38 38 38 37 39 40 40 40 39 39 37 35 33 33 32 32 31 31 30 30 31 32 35 35 35 34 34 34 34 34 34 35 34 33 33 33 33 34 35 34 34 34 33 33 33 33 33 33 33 33 33 34 35 34 32 32 31 31 31 31 30

ECMWFFLT1_sfc_dewp_033.txt.gz
Dewpoint
57 56 58 58 58 56 56 56 57 57 58 60 62 61 62 63 63 63 64 64 62 61 61 61 61 61 61 61 61 61 61 61 61 61 60 60 59 60 61 61 60 60 60 60 60 57 55 53 50 53 53 55 55 56 58 61 63 63 64 64 62 64 67
58 57 57 57 55 56 56 56 57 56 57 59 58 60 60 61 61 62 63 62 62 61 60 60 61 60 61 62 61 61 60 61 62 61 60 60 59 59 59 59 59 58 58 58 59 59 55 52 50 51 51 52 51 51 52 55 58 60 60 61 62 63 64
58 57 56 56 56 56 55 56 57 57 57 58 58 58 58 58 60 60 60 61 62 61 59 60 60 61 62 61 62 62 62 61 61 61 60 60 60 60 60 59 57 57 57 56 56 55 55 53 48 46 49 48 47 47 50 50 50 52 53 55 56 55 56
58 57 56 56 55 56 54 55 56 56 57 57 57 58 58 58 59 59 60 60 61 60 57 57 60 59 60 60 60 61 61 61 60 60 59 60 59 59 58 58 58 57 56 54 53 51 49 49 46 46 46 43 43 47 48 47 46 44 43 46 46 47 48
59 58 57 56 55 54 55 54 54 55 55 56 57 57 57 57 59 59 59 59 57 58 57 58 58 58 57 56 57 57 57 57 59 59 60 58 57 56 57 56 55 54 53 50 50 52 50 49 49 47 44 42 41 42 45 46 44 43 41 40 40 42 44
59 58 57 56 56 55 54 53 53 53 53 54 55 55 55 57 57 58 58 57 57 58 58 56 57 56 56 55 55 56 56 56 56 56 53 55 55 52 52 53 50 50 49 51 51 51 54 52 49 46 44 44 44 42 42 43 42 40 39 38 39 39 40
59 59 57 56 56 55 54 54 53 53 53 55 54 55 55 55 56 57 57 57 56 56 56 57 57 56 57 51 54 55 54 55 56 56 55 56 55 55 54 50 50 49 51 52 51 50 50 51 49 47 46 46 45 40 39 40 41 38 38 37 37 38 40
58 57 57 57 56 56 55 55 55 55 54 54 53 55 55 56 56 57 57 57 57 57 56 56 55 55 56 54 53 55 54 54 54 54 54 54 54 53 54 51 51 50 50 48 48 47 45 49 49 49 46 45 44 43 41 38 38 39 36 35 36 37 39
57 58 57 56 57 57 56 55 55 55 55 54 56 56 56 56 56 56 55 56 56 56 55 54 54 53 55 54 53 54 53 52 54 54 53 53 54 54 53 52 48 47 49 47 46 48 45 48 49 50 48 45 42 42 42 42 39 37 39 35 33 35 36
58 58 57 57 57 57 57 57 56 55 56 56 56 57 56 56 56 56 55 56 57 56 56 54 54 54 54 54 53 53 52 53 53 52 53 52 53 52 51 53 49 48 48 50 49 50 51 50 48 48 45 44 43 40 40 40 42 39 36 36 32 30 32
58 59 58 57 58 58 57 56 55 56 56 56 56 56 56 56 57 56 56 56 57 56 55 54 53 53 54 52 53 52 52 53 52 52 52 51 52 52 51 49 49 47 51 50 49 53 52 51 48 46 45 46 46 39 40 39 41 43 40 38 35 29 27
58 58 58 59 58 57 57 55 54 56 57 56 55 56 55 54 55 55 56 55 56 55 55 55 55 54 53 52 53 51 52 52 50 50 51 52 52 51 49 50 50 49 52 53 52 51 52 51 48 44 43 44 46 49 45 41 39 42 45 40 34 31 29
56 57 58 58 57 57 55 54 55 56 57 56 56 56 54 53 54 54 54 54 54 54 53 54 54 54 54 52 51 49 51 51 48 48 48 50 47 50 49 48 48 48 50 48 49 50 48 49 50 44 44 43 43 47 44 42 41 41 43 35 32 31 33
57 57 57 58 58 57 56 54 56 56 55 56 56 55 54 53 52 53 52 52 52 53 53 54 54 54 54 53 52 52 50 49 47 48 48 49 48 48 45 45 46 48 50 48 47 46 44 44 45 45 43 39 39 44 43 43 40 41 42 38 35 31 35
57 57 58 58 58 57 56 55 56 55 56 55 55 54 53 55 54 53 52 51 52 51 51 52 53 53 52 53 54 54 52 48 48 48 49 46 48 48 49 44 43 47 48 45 47 39 40 40 38 34 34 34 31 37 43 37 38 38 38 38 33 31 32
57 57 58 58 58 57 57 56 55 55 55 55 55 55 54 55 53 53 52 52 51 52 52 52 53 52 53 52 51 53 53 51 50 49 49 47 45 47 47 47 46 48 49 48 48 47 46 41 37 33 37 32 32 33 30 31 32 33 34 31 37 29 35
58 58 58 58 58 58 58 57 56 55 55 55 54 56 55 54 54 54 54 53 53 53 53 53 53 52 51 52 51 51 51 52 51 50 48 46 45 49 48 48 48 49 48 47 46 46 45 45 42 36 36 36 35 31 37 37 33 32 33 32 35 26 32
58 59 59 59 59 58 58 58 57 55 56 56 56 57 57 55 55 54 55 54 54 54 53 53 53 53 55 55 53 52 51 51 52 52 51 50 51 49 49 48 47 47 47 46 48 45 44 45 36 36 32 30 28 33 36 34 30 31 34 35 37 36 37
57 58 58 59 59 58 59 58 57 57 55 55 56 57 57 58 57 55 54 54 54 54 54 55 54 53 53 54 55 55 54 54 53 53 53 54 51 51 50 48 48 48 46 47 47 47 46 44 40 37 34 28 26 35 37 36 37 37 33 33 37 37 39
58 58 59 58 59 58 57 59 58 56 57 57 57 57 57 56 57 55 55 56 56 56 55 55 55 56 55 55 55 54 54 53 53 53 53 53 54 52 50 49 50 50 48 47 48 48 47 47 44 40 39 40 32 36 37 34 33 36 36 36 36 38 37
58 59 59 58 58 58 57 58 58 58 57 57 57 56 56 56 57 56 56 56 56 57 56 56 56 56 55 55 55 55 55 55 54 54 54 53 53 54 53 52 52 52 49 49 49 49 48 45 43 40 40 39 39 38 36 36 37 35 37 38 36 37 35
58 58 57 57 57 57 57 58 57 57 57 58 58 56 56 56 56 56 56 57 56 57 57 57 57 57 57 55 55 55 55 53 53 53 53 52 52 52 51 52 51 51 53 52 49 49 48 46 43 38 38 39 39 38 37 36 36 35 36 38 38 39 37
56 56 56 56 57 57 57 57 57 57 57 57 57 58 57 57 57 57 56 56 57 57 57 57 55 51 51 55 55 54 55 55 54 54 53 53 53 53 52 52 53 52 50 49 46 43 42 41 43 41 39 41 39 39 38 37 35 37 38 38 37 37 37
56 56 56 56 56 56 56 57 57 56 57 58 57 56 57 56 56 56 55 55 56 57 57 56 49 46 45 46 53 56 55 55 55 54 54 54 54 54 54 51 52 52 50 48 47 42 40 38 38 38 39 40 41 40 39 39 38 38 36 37 38 38 37
55 55 55 55 55 55 56 56 56 56 57 57 57 57 57 56 56 56 57 56 57 57 57 51 46 45 44 42 46 56 56 56 55 55 55 54 54 54 53 54 53 52 51 50 50 47 41 38 37 37 37 37 37 37 39 42 40 39 39 38 38 39 38
53 54 54 54 55 55 55 56 56 57 57 58 57 55 56 56 56 56 56 55 56 56 57 46 41 41 42 41 40 47 55 56 56 56 55 55 55 54 54 54 54 52 51 50 49 49 44 41 38 37 38 38 38 37 35 36 37 44 40 39 39 40 38
51 52 53 53 53 53 54 54 56 56 56 55 55 55 55 56 56 55 56 56 56 56 56 42 41 40 41 39 39 41 56 58 58 57 56 56 56 56 55 54 54 53 52 50 49 47 43 40 40 39 41 42 41 41 39 37 36 37 40 41 40 40 42
45 47 48 49 51 51 51 52 52 53 53 54 54 54 54 55 54 54 53 54 55 54 53 39 39 39 39 39 38 40 55 56 56 56 55 55 54 55 54 55 54 53 52 50 48 44 42 40 41 42 41 41 40 41 42 42 42 42 41 42 41 42 42
44 45 45 46 47 48 49 49 50 49 50 50 50 50 50 51 52 53 52 53 54 54 52 38 37 37 39 38 39 51 53 54 55 54 51 50 49 50 50 51 52 52 50 48 40 36 39 41 41 41 41 41 40 41 40 38 37 38 43 43 42 41 40
47 47 45 46 47 47 48 47 48 47 48 48 48 48 50 50 49 50 49 50 53 53 50 41 37 37 38 38 44 53 54 51 50 49 48 48 47 48 49 48 49 48 47 46 39 36 37 39 42 41 41 42 41 40 39 38 37 36 36 36 35 35 34
43 44 44 44 44 46 46 45 46 46 47 46 48 49 47 46 47 48 51 51 51 52 49 41 37 38 38 38 47 53 51 50 48 46 45 45 45 45 44 46 46 46 46 44 36 36 37 41 43 43 43 41 39 38 36 37 37 37 36 35 34 33 34
41 42 41 43 45 45 45 44 45 46 47 48 48 46 45 45 46 46 46 47 42 49 49 43 37 38 38 39 46 51 49 47 46 45 43 42 43 42 41 40 41 43 44 40 36 36 37 42 44 43 41 40 38 37 35 35 36 36 37 37 38 40 37
44 44 42 46 45 44 44 44 45 46 47 46 45 45 45 45 45 44 43 44 45 47 47 46 42 38 38 39 41 49 49 46 45 44 42 40 40 40 39 38 36 34 34 34 34 34 34 37 42 41 40 38 37 35 35 36 37 36 36 36 37 37 36
43 46 47 47 46 47 47 47 47 47 47 46 46 45 46 44 43 42 41 42 43 45 46 46 44 37 38 38 39 42 48 47 45 43 41 39 39 38 36 35 34 34 33 33 33 33 33 34 35 38 38 37 38 37 35 36 37 34 36 36 35 34 34
43 45 45 46 47 47 47 46 46 46 45 45 46 45 44 41 41 40 39 40 42 43 42 42 46 38 37 38 38 39 46 46 44 42 40 38 37 37 36 34 34 34 33 33 33 33 34 34 34 35 36 33 33 33 36 35 36 34 34 33 32 31 32
43 43 44 44 45 46 47 46 47 47 46 46 45 44 44 42 42 41 40 39 39 41 41 40 37 41 36 36 37 37 38 40 36 43 41 39 38 36 36 36 34 34 33 33 33 33 34 34 35 35 33 33 33 34 34 34 32 34 32 32 32 32 32
41 43 42 43 43 44 46 46 47 46 46 46 45 45 43 44 43 43 42 39 38 37 38 40 38 37 38 35 35 35 35 35 36 42 42 39 37 36 36 36 34 33 34 34 34 34 33 34 34 33 34 33 33 33 33 33 32 33 31 30 30 31 30

ECMWFFLT1_sfc_dewp_036.txt.gz
Dewpoint
57 58 58 57 57 55 55 55 55 56 57 56 57 56 57 57 58 59 60 61 58 57 56 56 57 57 58 58 60 61 60 62 62 60 59 59 58 59 60 60 61 62 61 61 59 56 57 53 53 55 57 58 59 60 61 62 63 64 63 63 63 65 66
57 57 56 55 55 56 56 55 54 52 55 58 57 58 57 56 56 57 58 58 58 57 55 55 57 57 59 60 61 60 62 63 63 63 61 60 61 59 60 60 59 59 60 61 60 59 59 51 52 54 54 56 57 57 58 60 61 61 61 61 61 61 61
57 56 54 55 55 56 55 56 55 53 53 56 59 58 57 54 56 56 56 57 58 56 55 54 56 57 58 60 62 63 63 62 62 62 62 61 61 61 60 60 59 59 58 57 58 57 57 55 50 50 53 53 52 53 56 57 57 58 57 56 56 55 57
58 57 56 56 54 55 55 55 54 54 55 56 56 58 58 55 56 57 57 57 57 56 52 52 55 54 56 58 58 58 60 61 61 62 62 61 61 60 60 59 57 57 56 56 56 56 54 53 50 49 49 48 49 51 52 51 51 49 50 54 53 52 54
59 57 56 56 54 54 54 53 52 53 55 56 56 55 56 56 55 56 57 56 55 56 54 56 56 54 55 54 54 55 56 57 58 58 58 60 61 60 60 59 58 58 57 56 54 55 53 51 52 49 45 45 45 45 47 51 47 46 45 45 45 48 49
58 56 55 55 54 52 52 52 52 52 52 53 53 53 56 56 55 56 57 55 53 55 57 55 55 55 54 51 52 52 54 54 54 56 54 57 56 55 54 55 52 53 53 53 55 56 54 54 52 47 44 45 48 47 46 46 43 41 42 42 43 43 44
58 56 54 53 53 51 51 52 51 51 51 53 54 54 54 52 54 55 55 55 54 53 55 56 56 55 55 48 51 52 53 54 54 54 53 54 55 55 53 49 49 47 48 49 49 51 54 52 50 50 50 48 47 41 41 41 42 39 39 40 41 43 45
58 55 52 53 53 52 50 51 50 51 51 52 52 55 54 54 54 54 53 52 52 52 52 54 54 54 54 49 49 53 52 52 52 52 52 53 52 52 52 47 47 46 47 43 45 46 43 50 49 49 47 45 44 43 41 38 39 38 38 38 38 40 43
56 55 54 53 53 53 52 50 51 51 52 52 54 55 54 53 52 52 51 50 49 50 50 51 51 51 53 51 49 51 50 48 50 50 49 49 51 51 51 49 46 45 46 43 42 44 44 47 49 48 47 45 41 41 42 41 39 38 36 34 33 36 39
58 56 54 55 55 55 54 52 51 50 53 53 54 55 54 52 52 52 51 52 52 51 51 50 50 51 51 50 49 50 50 48 48 48 49 49 51 49 50 50 45 44 45 48 47 47 47 48 47 48 45 43 43 39 40 41 42 39 37 34 27 27 32
58 57 55 56 56 56 54 53 54 52 52 52 54 54 54 54 53 52 52 53 53 52 51 49 47 49 50 48 49 48 48 49 48 48 49 48 50 50 50 49 48 46 50 48 48 50 49 47 44 44 43 45 44 41 39 39 43 42 36 34 30 22 25
59 58 55 55 56 56 56 57 57 55 54 53 52 54 54 52 53 53 53 52 53 52 52 51 51 49 48 49 49 48 51 49 46 48 49 50 50 49 49 49 48 47 50 50 50 49 49 47 42 38 40 43 46 49 42 39 41 44 43 36 29 27 26
58 56 55 56 54 56 54 52 54 56 55 51 52 52 50 50 51 52 51 51 52 52 51 52 51 51 50 49 48 46 48 48 45 46 46 48 44 48 48 47 47 46 47 45 46 46 43 46 46 38 40 41 42 46 44 43 43 42 40 33 31 28 30
59 57 55 56 54 54 52 53 53 55 54 53 53 51 50 49 48 50 50 49 50 52 51 52 53 52 51 50 49 47 47 45 43 44 45 45 44 46 42 42 43 45 48 47 45 44 41 40 41 41 40 37 38 43 42 43 41 39 38 38 35 28 34
60 58 58 57 57 55 53 54 56 56 56 56 53 50 49 51 50 49 48 48 50 50 51 51 52 52 51 52 53 52 50 47 45 46 48 44 45 44 47 43 41 45 45 43 47 38 38 38 35 33 34 37 34 39 42 40 38 36 36 37 33 30 33
59 60 60 58 56 53 52 54 55 56 55 54 54 51 51 52 50 49 48 49 48 49 49 49 52 52 52 52 51 53 53 52 51 50 49 47 42 45 47 47 45 46 47 47 47 46 44 41 36 36 39 37 39 39 36 37 40 39 38 35 37 32 35
59 60 60 57 56 56 55 53 52 55 55 54 52 53 52 51 51 51 51 50 50 50 51 52 52 51 51 51 50 51 51 52 52 51 51 48 44 46 47 48 48 48 48 48 46 45 45 44 43 39 41 42 43 41 44 44 42 42 39 37 38 30 35
58 59 59 58 58 56 58 54 51 50 55 56 54 54 54 52 52 51 53 51 51 52 52 52 52 53 55 54 53 52 52 51 53 52 52 52 52 51 50 49 48 47 48 48 48 46 45 46 39 40 39 38 39 41 43 41 41 40 42 41 40 38 40
58 58 58 59 58 58 58 57 55 53 52 53 54 55 55 54 53 52 52 51 51 51 51 52 53 53 53 55 55 55 55 54 54 53 53 52 51 52 53 51 50 50 48 49 49 48 48 46 41 41 40 35 35 40 43 43 43 43 42 40 43 42 43
57 57 58 58 58 56 57 58 56 53 53 53 54 55 55 54 56 54 53 53 53 53 53 54 54 54 54 54 55 55 57 55 54 55 55 54 53 53 53 52 52 52 51 49 51 53 51 48 47 44 42 42 38 42 42 42 42 43 43 43 42 43 42
58 57 56 56 56 56 56 56 56 54 54 53 54 53 53 54 56 55 55 55 54 55 56 55 54 53 53 54 55 55 55 56 55 54 56 54 55 54 54 53 53 52 52 51 51 51 50 50 53 50 44 41 43 42 42 42 43 42 43 44 42 40 40
58 57 56 56 56 57 58 56 56 55 56 56 56 53 54 54 55 55 55 56 56 57 57 56 55 55 55 55 55 56 57 56 56 56 56 56 56 56 55 55 54 53 53 53 51 51 50 50 51 47 44 43 42 42 42 42 43 41 42 43 43 44 42
56 56 56 55 55 55 55 58 59 58 58 57 57 55 55 55 55 55 54 54 56 58 57 57 57 52 52 55 56 55 57 56 55 56 56 56 56 55 55 55 55 54 52 51 49 46 45 46 47 46 46 45 42 42 41 42 42 42 43 42 42 42 42
56 56 55 56 56 55 55 56 58 57 57 56 57 56 56 55 55 55 54 54 56 58 58 56 47 47 47 47 55 58 57 57 57 57 57 57 56 56 56 54 56 54 54 51 51 44 43 43 42 39 39 41 44 52 45 43 42 44 42 43 42 42 41
54 54 56 55 55 55 55 55 56 57 57 57 58 58 58 57 57 58 58 56 57 58 58 46 42 42 42 43 46 58 58 57 58 58 57 57 56 55 55 56 56 56 54 53 52 50 45 41 39 37 37 37 36 36 38 49 45 43 43 42 41 41 41
54 55 55 54 55 56 55 55 56 57 57 57 58 57 56 58 57 57 57 56 56 58 58 40 42 41 42 40 41 47 56 57 56 56 56 55 55 54 55 55 56 56 53 52 50 51 49 45 38 38 38 38 38 37 35 35 37 49 44 42 40 41 42
51 53 54 55 55 54 56 56 57 58 57 56 57 57 58 57 57 56 57 56 56 57 56 42 40 40 40 39 39 43 56 55 53 51 52 52 53 52 52 52 51 52 54 53 52 53 50 46 42 40 39 38 39 42 37 36 35 36 39 43 43 42 45
44 46 51 54 55 54 55 56 56 57 56 56 55 56 55 55 56 56 56 56 56 57 56 39 39 39 39 39 38 42 55 53 50 50 51 53 53 54 54 54 53 51 51 53 53 52 50 45 43 40 37 40 43 43 45 45 45 45 43 44 43 44 45
41 42 44 47 50 51 53 53 54 54 54 54 54 54 55 55 55 56 56 56 57 56 54 38 38 38 38 38 39 56 52 50 48 48 49 52 51 52 53 54 52 51 52 51 44 42 44 44 42 40 42 44 44 44 42 37 37 37 43 45 45 45 44
38 40 41 42 42 45 48 50 51 51 51 51 52 52 52 53 53 54 54 55 54 54 55 42 36 37 38 38 44 52 50 47 49 49 50 51 50 51 52 51 52 51 51 50 40 37 38 40 44 43 44 44 44 43 42 40 37 36 36 35 35 35 34
38 38 38 38 38 43 47 49 49 48 48 48 47 48 48 47 47 47 47 48 48 48 53 43 35 38 38 39 46 52 47 47 49 49 49 50 49 47 45 44 47 50 50 45 36 36 37 41 45 45 45 45 44 44 44 43 41 39 35 34 34 34 34
41 40 40 41 44 44 46 47 47 48 45 45 46 44 41 41 42 43 45 47 47 49 50 45 37 37 38 39 46 54 47 46 49 48 48 47 48 46 44 42 40 44 45 42 36 37 37 41 47 46 46 45 43 43 42 42 41 40 40 40 40 40 40
41 41 41 42 44 44 44 44 46 44 43 39 37 36 36 38 40 41 46 45 48 48 48 51 46 37 38 39 38 52 47 46 48 48 47 45 45 45 44 42 39 35 35 35 35 35 36 38 45 46 45 43 43 42 41 40 40 40 39 38 38 40 40
41 41 41 42 44 42 43 43 44 43 41 39 38 37 39 40 41 43 45 46 46 51 52 50 48 37 39 38 39 41 47 46 48 47 46 44 44 43 41 39 39 35 34 34 34 34 35 35 37 44 44 43 42 40 37 39 38 33 35 37 38 37 37
42 44 42 41 43 44 43 42 44 44 40 40 42 42 43 42 41 42 44 45 48 49 47 45 50 39 38 39 39 39 47 47 46 45 45 44 43 42 41 38 36 35 34 34 34 34 34 34 34 37 38 33 33 34 37 34 37 37 36 35 33 31 32
40 42 43 43 41 42 42 43 42 42 42 44 47 48 47 45 44 44 44 45 47 48 48 45 39 46 37 37 38 38 38 46 39 49 45 44 43 41 40 39 36 35 34 34 34 34 34 34 35 35 33 33 32 31 34 36 34 34 34 32 33 32 31
37 39 39 41 41 42 41 42 43 42 41 40 40 41 40 43 42 41 42 43 45 45 46 43 38 39 41 36 37 37 37 37 39 45 46 43 42 40 38 37 35 34 34 34 34 34 33 34 33 33 33 33 33 33 35 33 33 34 32 31 31 33 33

ECMWFFLT1_sfc_dewp_042.txt.gz
Dewpoint
63 61 64 63 60 60 61 61 63 64 62 61 61 57 60 60 62 61 61 62 63 57 59 60 60 60 60 60 62 62 62 62 62 61 61 62 61 60 62 62 62 62 61 60 59 57 55 54 55 59 60 61 61 62 62 62 62 63 63 63 63 63 63
58 60 59 59 61 61 61 61 64 59 61 62 60 62 59 57 59 60 62 62 62 60 56 57 58 59 61 63 64 63 62 62 63 62 62 62 59 62 62 61 60 60 60 60 60 60 57 53 55 56 56 61 60 61 62 62 62 63 62 62 62 62 61
59 58 60 60 60 61 62 62 61 62 61 62 62 59 60 57 59 59 60 60 60 57 57 57 59 61 61 61 61 62 63 63 63 63 62 63 62 61 61 61 59 60 59 58 60 59 58 57 54 55 56 56 56 59 61 61 60 61 61 61 60 58 57
60 61 60 60 60 62 60 60 61 63 63 60 62 61 60 59 59 59 59 57 60 60 57 57 59 57 61 61 60 61 61 60 61 61 62 62 61 60 61 61 58 59 58 57 59 59 59 57 55 55 56 51 54 56 58 58 54 57 59 59 56 55 52
59 60 59 59 59 59 60 61 62 61 60 60 60 61 61 60 60 58 58 60 60 60 59 59 56 55 56 57 59 59 59 60 60 60 59 60 60 60 60 61 60 60 61 59 60 58 59 58 56 53 55 47 46 47 52 52 49 49 50 51 51 50 48
60 60 59 60 60 60 61 61 60 60 59 58 60 60 61 62 62 61 60 60 60 60 61 59 57 54 56 57 56 56 57 56 57 58 57 57 57 57 57 56 56 56 58 59 59 59 60 59 59 54 46 47 46 45 44 48 44 45 47 48 48 48 48
62 60 61 60 61 60 61 61 61 59 59 58 59 59 59 57 58 58 59 58 58 58 58 58 56 56 56 51 53 55 54 55 56 56 55 56 56 55 56 50 51 54 54 54 56 57 57 58 52 51 49 48 47 42 40 39 39 39 43 46 47 48 48
61 60 61 61 61 61 61 59 61 60 58 57 58 59 57 58 58 58 58 57 58 59 58 58 56 55 54 50 51 54 54 53 52 54 55 54 54 53 53 55 53 50 51 50 50 51 54 55 55 54 50 48 49 46 37 32 34 38 41 43 46 46 47
58 60 61 59 62 62 60 61 61 60 59 58 58 59 58 57 56 55 56 57 58 58 58 57 55 55 56 55 55 55 53 52 55 54 54 55 55 55 55 54 50 49 50 49 47 50 47 53 57 59 53 48 42 39 41 38 36 35 37 40 43 44 44
58 59 59 59 61 62 62 62 60 60 59 57 56 58 57 58 58 56 55 56 56 55 55 56 56 56 55 54 52 52 52 54 54 53 55 54 55 55 54 52 51 51 51 52 52 50 51 50 52 51 50 49 47 48 42 42 41 37 31 35 35 39 42
58 59 58 59 59 61 61 61 61 58 58 57 56 56 59 58 56 56 57 56 57 57 58 56 53 54 55 55 54 53 53 55 55 55 53 53 55 55 53 51 53 52 53 53 52 52 52 51 52 44 48 48 50 48 48 40 42 43 37 34 31 31 33
58 58 58 58 58 58 59 60 60 59 58 57 56 57 57 56 56 56 57 56 56 56 56 56 55 53 53 54 56 55 55 53 52 52 52 52 53 52 51 52 53 54 54 51 52 50 50 50 51 47 47 50 51 51 48 42 41 43 44 40 37 28 30
56 56 57 58 57 56 56 57 58 58 58 57 56 57 56 55 57 55 55 54 55 56 56 56 55 56 56 55 53 53 53 54 52 52 53 53 48 53 51 49 52 52 52 51 50 52 50 48 50 49 47 48 47 51 45 43 40 41 47 39 38 32 35
59 56 57 57 57 56 57 56 57 58 56 58 56 57 55 54 52 55 53 52 52 56 56 56 57 56 56 55 55 54 52 49 44 48 50 51 47 50 49 48 49 51 52 52 49 52 45 46 46 49 49 47 47 47 48 42 40 41 42 52 46 39 41
60 57 57 58 57 58 58 58 59 56 57 58 55 53 52 56 55 54 51 51 53 52 54 55 56 56 54 55 54 56 54 52 51 52 53 46 50 53 52 47 47 51 51 51 52 41 42 44 38 40 43 47 46 48 46 42 41 41 40 43 42 36 41
60 57 57 56 58 55 58 59 57 57 57 58 56 55 54 56 54 53 54 54 51 53 53 55 57 56 55 55 53 54 56 54 54 52 52 50 46 51 52 52 51 51 54 51 53 52 52 47 44 44 46 47 47 47 46 47 45 41 40 44 47 38 45
60 59 55 56 58 55 56 57 58 57 56 54 52 57 56 52 54 55 54 52 53 54 53 57 57 54 53 54 55 54 54 55 54 54 53 50 47 50 53 52 50 52 51 53 52 52 50 50 51 46 49 49 49 49 49 51 45 45 45 45 47 38 45
60 60 57 56 58 55 55 56 57 56 60 56 53 56 54 53 54 53 55 51 51 53 53 54 55 56 57 57 56 56 55 54 55 54 55 55 56 54 53 53 52 52 52 52 49 53 51 50 48 46 44 46 46 50 51 49 48 48 48 48 47 46 47
61 61 61 60 59 57 58 58 56 58 55 53 57 57 54 53 52 51 50 50 51 50 51 54 54 55 55 57 57 57 56 56 56 54 55 55 54 55 54 55 55 52 51 53 54 53 53 52 50 50 49 47 47 50 50 49 49 48 46 47 45 48 46
60 60 61 60 58 60 57 56 56 53 55 54 55 57 56 55 56 53 48 51 51 50 52 52 56 57 57 57 57 56 57 58 57 57 56 55 55 56 55 55 55 56 54 54 55 55 53 53 52 52 52 51 49 51 50 49 48 49 50 48 47 48 48
60 61 61 60 59 59 59 58 54 53 55 57 55 52 53 54 56 52 54 52 51 53 54 55 55 57 57 58 58 57 57 58 57 57 57 56 56 55 55 55 56 55 56 55 55 55 53 54 52 51 51 51 50 49 49 49 49 48 48 49 50 46 47
60 60 59 58 58 58 58 59 60 59 58 58 60 58 58 55 53 50 51 55 55 55 58 57 57 55 55 56 55 55 57 56 57 56 55 56 57 57 58 57 57 57 55 57 51 51 52 52 52 52 50 49 50 51 50 48 49 49 48 48 48 48 47
59 59 59 58 58 58 58 60 61 60 58 59 59 59 58 58 57 56 55 55 57 58 58 58 56 51 49 56 56 55 56 58 58 57 57 56 56 57 56 57 57 57 54 51 48 45 45 45 47 49 49 51 49 48 48 49 48 48 48 47 46 47 46
59 58 58 58 59 58 58 58 58 59 60 60 59 59 59 58 60 59 58 58 58 58 58 57 50 47 47 47 55 58 59 57 57 57 57 57 55 56 57 57 57 57 53 51 48 44 44 42 39 39 40 42 46 51 50 48 48 49 48 47 47 47 46
58 57 58 56 57 57 58 58 58 58 59 60 60 60 59 58 58 59 59 58 59 58 58 54 49 47 46 45 46 54 57 57 58 58 57 58 57 56 57 57 58 58 56 55 52 49 46 42 39 38 37 37 37 37 41 48 48 48 48 47 47 46 45
54 55 55 56 58 58 57 57 57 58 59 59 60 59 59 59 58 59 59 59 58 58 57 51 45 43 44 43 43 50 55 58 57 57 56 56 57 57 58 58 58 58 57 56 54 52 51 46 40 39 39 39 39 37 35 35 39 46 47 47 46 46 46
53 54 57 56 56 56 56 57 59 59 58 58 58 58 58 58 58 58 58 58 58 57 58 51 43 43 42 42 42 49 55 58 57 57 56 57 58 57 58 57 57 56 56 55 55 54 52 48 44 43 44 44 42 40 37 35 35 36 40 47 46 46 48
43 48 54 54 56 57 56 58 57 58 58 58 57 57 58 58 58 58 58 57 57 58 58 48 42 42 41 42 39 44 57 58 58 57 57 57 56 54 56 56 56 56 56 55 55 54 53 49 47 48 47 46 44 44 44 45 47 47 47 48 47 48 47
51 52 51 52 52 53 55 57 57 58 58 57 57 58 58 57 56 56 56 57 58 57 53 40 41 41 42 40 40 52 56 57 57 56 56 56 56 55 54 55 54 53 55 55 49 45 48 50 49 48 47 47 45 45 40 36 36 37 40 41 41 42 40
45 45 46 49 50 51 52 53 55 55 55 55 55 56 56 56 56 56 56 56 57 56 54 44 41 41 41 39 44 54 56 56 56 55 55 54 53 51 50 52 54 53 52 47 42 43 44 46 50 48 47 46 46 46 43 42 38 36 36 35 35 35 35
41 44 44 44 46 49 50 52 53 56 54 54 53 53 53 54 55 55 55 55 55 55 56 48 40 40 40 40 47 55 55 56 56 52 51 51 49 47 46 46 53 52 49 45 37 39 42 48 50 48 47 46 46 46 44 43 42 43 35 35 35 34 34
41 43 43 46 48 47 49 49 49 51 53 53 53 53 51 51 52 53 54 55 54 55 56 50 40 40 40 39 44 53 55 54 49 48 49 49 49 46 42 41 43 45 44 40 36 36 38 45 49 48 46 47 46 46 44 43 43 42 41 40 40 40 40
42 43 42 45 47 47 47 47 48 50 52 51 49 48 49 49 50 51 52 53 56 55 56 53 44 40 40 40 42 52 54 52 49 48 47 47 47 46 42 40 39 36 36 36 36 36 37 40 47 48 50 47 46 48 46 47 47 44 44 43 43 43 44
40 41 41 43 44 45 46 46 48 48 49 49 48 48 51 51 50 50 49 51 54 54 56 55 48 39 40 41 40 43 52 53 51 50 50 46 45 45 42 40 39 36 35 35 35 35 36 37 39 41 40 38 39 42 42 42 41 38 39 40 39 40 40
40 41 39 41 42 43 45 46 46 46 45 48 49 48 50 49 46 46 47 49 50 53 53 52 51 40 39 39 40 39 48 52 52 50 51 51 45 43 41 39 37 36 35 35 35 35 35 34 34 35 31 31 31 32 36 40 43 41 41 40 40 39 39
40 40 40 40 41 42 42 42 44 45 45 45 46 47 48 48 47 46 48 47 46 49 53 51 46 44 38 38 38 38 39 43 42 53 52 49 50 43 41 38 37 36 34 34 34 34 34 34 34 32 32 32 31 31 34 36 37 40 39 38 39 37 35
37 38 38 39 38 38 39 40 40 41 42 43 43 44 44 45 44 43 44 45 44 46 52 51 45 43 39 37 38 38 37 37 40 50 50 48 43 41 38 36 36 34 34 34 34 33 33 33 31 32 32 32 31 32 36 37 37 39 35 35 35 34 35

ECMWFFLT1_sfc_dewp_045.txt.gz
Dewpoint
55 55 55 55 56 56 55 56 57 57 57 57 57 59 59 60 59 58 59 60 60 59 60 58 59 60 60 61 61 61 60 60 59 58 58 58 57 57 59 59 59 60 60 59 57 54 54 54 55 59 59 60 61 61 61 61 61 62 62 63 62 62 61
55 53 55 55 54 55 54 57 58 57 58 58 59 58 58 59 58 58 57 57 57 58 58 58 59 60 61 60 60 60 59 60 60 59 58 58 58 57 58 57 58 58 58 58 58 57 55 54 54 56 57 59 59 60 61 61 61 62 62 62 60 56 54
53 53 54 53 52 55 57 56 56 56 55 55 56 57 58 59 58 55 53 55 57 57 58 58 59 59 59 60 60 60 60 60 60 59 59 59 59 59 58 57 57 56 56 56 57 56 55 54 53 55 56 56 56 57 59 60 61 61 61 59 54 51 51
53 54 54 53 56 55 54 55 56 57 56 56 55 56 56 56 57 58 56 57 58 59 58 57 57 59 58 58 59 59 59 59 59 59 59 58 58 57 58 57 56 56 55 55 56 56 54 53 54 54 55 56 56 57 58 59 60 60 58 54 50 50 50
54 54 53 53 55 54 53 55 56 55 54 54 55 54 54 55 55 56 57 57 57 55 55 55 55 55 55 56 56 56 56 57 57 57 57 57 58 58 57 57 57 58 58 57 57 57 55 54 54 54 54 55 56 56 58 57 59 59 53 49 48 47 47
54 53 54 54 55 53 56 57 55 54 54 53 54 56 56 56 56 55 54 53 53 53 54 54 53 55 55 54 54 54 55 55 54 54 53 53 55 56 54 55 58 58 58 58 58 57 57 56 55 54 52 54 52 53 56 54 53 52 50 48 47 48 49
54 54 55 54 55 54 57 56 55 54 54 54 55 54 53 54 55 56 55 55 55 54 54 53 53 52 51 51 51 50 51 52 53 52 51 51 51 51 48 47 48 51 53 57 57 57 56 55 53 51 48 47 49 51 51 46 48 47 48 48 48 46 46
55 55 55 55 56 54 57 56 56 54 53 53 54 54 53 53 54 54 54 53 53 53 53 52 51 50 50 50 51 51 50 51 51 52 52 51 52 49 48 48 48 48 49 50 51 53 56 56 53 51 47 45 45 43 41 41 43 46 46 47 47 46 46
56 57 56 56 56 55 54 56 54 52 53 53 53 53 54 51 50 51 52 53 54 54 53 51 51 51 52 51 51 50 51 55 51 51 51 51 50 50 50 50 48 48 49 49 48 49 49 53 53 52 49 46 42 36 39 40 42 44 45 44 46 48 48
56 56 55 55 56 54 56 56 54 53 52 52 53 51 50 51 53 52 52 51 50 50 50 50 50 50 49 49 49 50 50 51 52 50 51 50 50 48 48 49 49 50 49 48 46 48 48 49 49 50 49 47 42 36 37 38 39 41 43 44 42 44 47
56 56 55 55 55 56 57 56 54 52 51 52 51 52 53 53 53 56 51 49 50 51 52 51 50 50 49 49 49 50 51 51 50 50 51 51 51 52 51 51 51 48 49 48 46 46 47 49 47 48 48 49 44 38 40 36 37 40 38 36 39 39 44
57 56 56 55 55 55 55 53 52 52 52 51 52 53 53 51 51 51 52 52 52 52 52 51 51 51 51 50 51 52 52 51 50 50 50 49 49 49 48 48 49 49 51 49 48 46 45 46 46 45 46 48 46 41 38 37 34 37 40 35 35 38 40
57 55 55 54 54 54 55 54 53 52 51 52 52 53 51 51 52 52 52 51 51 51 51 49 48 49 51 50 49 48 49 51 50 49 49 49 49 48 49 49 49 49 49 47 47 48 44 45 47 46 46 46 43 42 40 39 36 35 42 37 34 34 35
55 55 54 54 53 54 55 54 53 52 53 52 52 52 52 53 52 52 51 52 51 52 51 50 51 52 52 49 49 49 49 44 45 47 47 47 49 49 47 46 47 48 50 48 47 47 46 45 46 47 47 45 43 40 38 37 34 35 36 43 40 36 37
55 55 54 54 54 54 54 54 54 52 52 52 51 52 52 52 52 52 50 51 52 53 52 52 52 50 51 51 50 52 48 46 49 46 45 46 48 48 47 47 48 49 50 50 50 47 44 41 44 44 45 46 44 43 40 39 38 38 34 36 35 38 41
56 55 54 55 55 55 55 54 52 51 54 52 51 52 52 52 52 51 51 52 51 52 52 52 52 50 50 50 51 50 49 48 47 46 45 46 46 47 48 49 48 48 52 49 49 48 47 47 45 46 46 46 45 46 43 37 39 37 34 36 42 39 43
56 54 54 55 55 55 55 54 53 52 54 52 51 53 52 52 52 51 51 51 51 51 52 53 52 50 50 51 51 52 51 49 49 49 48 47 48 49 47 47 47 48 50 47 48 50 47 47 47 46 47 48 47 46 47 43 37 38 40 39 40 38 43
57 54 54 54 53 54 54 54 54 51 54 51 50 54 51 51 51 51 51 50 50 51 52 53 52 50 51 52 52 51 51 50 52 52 52 52 54 50 49 46 48 50 49 46 51 50 49 48 48 47 47 48 49 49 49 48 48 46 44 41 41 42 45
57 57 56 54 52 52 53 53 54 54 56 49 50 53 49 50 50 51 51 50 50 51 51 51 52 52 53 53 53 52 52 52 52 53 53 52 53 53 53 52 50 50 53 52 51 51 50 48 49 49 48 49 49 49 47 47 48 48 44 42 43 44 44
57 57 57 58 55 54 53 54 53 54 55 52 52 53 49 49 51 50 50 50 50 51 50 50 51 52 53 53 54 53 54 53 54 54 53 53 53 53 53 54 53 53 53 53 52 51 50 49 49 48 49 49 49 47 47 47 47 47 48 47 47 45 45
57 57 57 57 57 56 56 57 54 52 54 52 53 53 50 49 52 51 49 48 50 50 51 52 54 55 54 55 55 54 55 55 53 54 55 55 56 55 54 54 54 54 53 53 52 52 51 50 49 48 48 48 46 46 46 46 47 47 46 47 46 44 46
57 56 56 57 56 56 56 56 56 56 57 56 57 57 56 56 55 51 51 55 55 54 54 54 54 54 54 55 54 55 55 55 54 54 54 54 54 55 54 54 54 54 55 56 53 52 52 51 49 47 47 48 47 47 46 47 47 46 46 46 45 45 45
58 57 57 56 56 56 56 57 56 56 57 57 56 57 57 57 57 57 56 54 54 55 55 55 54 51 52 54 55 55 56 54 54 54 54 53 53 54 54 54 55 58 53 50 48 45 44 46 49 50 49 48 47 46 46 46 47 46 46 45 44 44 45
58 58 57 57 57 57 56 56 56 56 56 56 55 55 55 56 56 56 55 54 54 54 55 55 47 43 44 49 56 56 55 54 54 54 54 53 53 53 54 54 54 55 53 51 47 42 40 40 40 40 42 45 49 49 48 47 46 46 45 45 44 44 44
57 58 58 58 57 57 57 56 56 56 56 56 56 55 54 54 55 54 55 55 54 54 54 53 46 44 43 45 51 55 55 55 55 54 54 54 54 54 54 53 54 55 54 52 48 44 42 39 38 38 37 38 38 40 45 48 46 45 44 44 44 43 43
57 57 57 57 57 57 56 56 55 56 56 56 56 55 54 54 53 54 55 54 54 54 54 51 45 44 42 41 44 53 55 55 55 54 54 54 54 54 54 53 54 55 56 56 53 48 43 40 39 38 39 39 38 37 36 39 43 46 46 45 45 44 44
55 55 56 56 56 56 55 55 55 55 55 54 54 54 54 53 53 54 54 55 54 54 55 52 45 42 41 40 42 48 55 55 54 54 54 54 54 54 54 54 54 53 54 55 53 50 46 42 39 40 41 39 37 38 38 37 37 39 44 45 45 44 44
49 50 54 54 55 54 54 54 54 53 53 53 53 52 52 52 52 53 53 54 54 54 55 51 45 42 41 40 40 44 54 55 54 54 54 54 54 54 54 55 54 54 54 54 54 51 48 44 43 44 43 42 42 44 43 42 43 46 47 47 46 44 42
42 43 44 45 47 52 53 54 54 54 53 53 52 52 52 52 51 52 52 52 52 53 54 46 41 41 41 40 40 49 53 54 54 54 53 53 53 52 53 53 54 53 53 53 51 46 46 46 46 45 44 44 43 39 37 37 36 40 43 42 40 38 37
42 42 44 44 44 45 47 51 53 54 53 53 52 52 53 53 52 51 50 51 51 51 54 47 39 40 40 39 44 51 52 53 54 53 53 52 51 50 50 52 53 53 52 52 47 43 43 45 47 46 45 44 43 40 38 37 37 36 36 36 36 36 35
40 41 41 43 44 44 44 44 47 52 52 52 53 53 54 53 53 52 51 52 53 52 53 49 40 40 40 40 46 52 52 53 52 53 51 49 46 44 45 49 53 53 51 46 40 42 42 46 47 46 45 44 43 42 40 39 38 36 36 36 35 35 35
39 39 39 41 42 41 42 42 43 45 45 47 51 53 53 53 53 53 52 52 53 53 53 51 42 41 40 40 45 51 52 53 53 50 47 45 43 42 41 43 47 48 46 42 40 41 42 46 47 46 45 44 44 43 42 39 38 36 37 36 36 35 36
39 39 38 38 38 39 40 40 41 42 44 45 44 45 48 52 53 53 53 52 52 52 52 51 45 40 41 40 42 50 53 52 51 48 46 44 42 40 40 40 40 37 37 37 37 39 41 43 46 46 45 44 44 43 43 41 41 39 38 39 39 38 38
37 38 38 39 39 40 40 40 41 42 43 43 44 43 44 45 47 49 51 51 52 51 52 52 46 39 40 40 40 44 52 52 48 48 47 44 42 40 39 39 38 37 36 37 37 37 37 37 39 42 43 42 41 43 42 41 41 41 40 39 38 38 38
37 39 38 38 37 37 38 39 41 41 40 40 40 40 42 43 44 45 47 49 50 52 53 51 51 40 40 40 40 41 50 51 48 48 47 45 42 41 39 38 38 37 36 35 35 35 34 34 34 35 33 34 36 38 41 40 39 39 39 38 38 37 37
37 39 38 37 37 37 37 37 38 39 39 39 39 39 40 42 43 44 44 44 48 51 51 52 47 43 40 40 40 39 42 48 43 49 47 45 43 41 40 38 38 37 35 34 34 34 33 33 33 30 32 31 32 34 36 36 37 39 38 37 35 33 33
36 36 36 37 36 36 35 36 36 37 38 39 39 40 40 41 41 41 41 41 44 45 48 48 45 43 42 39 40 39 39 42 42 45 48 47 43 40 38 38 37 35 34 34 33 33 32 32 30 31 31 31 31 33 35 36 35 36 33 33 32 32 33

ECMWFFLT1_sfc_dewp_048.txt.gz
Dewpoint
53 53 54 55 56 56 55 56 56 56 57 57 58 57 58 59 58 59 59 58 59 59 59 58 58 59 60 60 60 60 60 58 57 58 57 57 56 56 58 57 58 57 57 56 55 53 53 53 56 59 60 59 61 61 62 62 62 62 61 60 58 57 56
54 54 55 56 55 55 55 56 56 56 57 57 58 58 57 58 58 57 58 58 58 58 59 59 59 60 59 59 58 58 58 58 57 57 58 56 57 57 56 56 57 55 56 55 56 55 53 54 55 57 57 59 60 61 61 62 62 62 59 56 55 54 53
54 54 54 54 54 55 56 55 55 54 55 56 56 57 57 57 55 56 57 57 57 58 59 59 59 59 59 59 58 59 59 58 58 58 58 57 57 57 56 56 55 54 55 54 54 54 54 54 55 56 57 57 56 59 61 61 61 58 54 52 51 50 50
53 53 52 53 55 55 54 54 54 54 54 55 55 55 55 56 57 58 57 57 57 59 58 58 58 58 58 57 57 57 57 57 57 57 57 57 56 56 56 56 56 56 55 53 54 52 52 53 55 55 55 56 57 57 59 60 59 55 51 51 50 50 50
52 51 51 53 54 54 54 55 54 54 53 53 53 53 54 55 55 55 55 55 56 55 55 55 55 55 55 55 55 55 55 55 55 57 55 56 55 55 55 55 56 55 55 55 55 54 54 55 55 55 55 56 56 57 59 56 58 52 48 48 48 48 48
52 51 53 54 53 54 55 54 53 52 53 53 53 54 54 54 54 52 52 53 53 54 54 54 54 54 53 53 53 53 53 52 52 52 52 53 54 54 53 54 56 56 56 56 56 55 55 55 55 54 54 54 52 55 56 56 53 49 48 46 46 47 47
52 52 54 53 53 55 55 53 53 52 52 53 53 53 53 54 54 54 53 53 53 53 53 52 51 51 51 50 50 50 50 50 51 51 50 50 49 49 49 50 51 54 55 57 57 56 55 55 53 54 54 51 54 55 56 50 50 47 48 48 48 49 49
53 53 54 54 54 56 55 53 53 53 53 53 52 52 53 54 53 52 51 51 51 51 51 51 51 50 51 50 51 51 52 51 51 51 50 49 49 47 48 48 49 49 52 54 56 56 55 54 54 53 52 51 50 51 50 47 47 46 47 47 46 46 48
54 54 54 55 55 56 55 54 53 53 53 53 52 53 53 52 52 52 52 52 51 51 50 50 51 51 50 50 49 50 50 52 49 49 49 48 48 49 48 48 47 48 49 49 52 55 55 55 53 50 50 52 51 44 44 45 44 45 47 46 47 47 47
54 54 54 54 55 56 55 54 53 53 53 52 52 52 50 51 51 52 52 51 50 49 49 49 49 49 49 49 49 49 49 50 49 48 48 48 48 49 49 48 48 47 47 48 48 50 52 53 53 50 49 50 46 43 43 42 43 44 45 45 45 46 48
54 55 55 55 55 55 54 53 53 52 51 51 51 51 51 51 52 54 50 49 49 49 49 48 48 48 49 49 49 49 49 49 49 49 50 50 49 49 49 49 49 48 48 45 46 48 49 49 50 50 49 46 43 44 43 43 43 42 44 43 41 43 47
55 55 55 56 56 54 53 52 51 51 51 50 51 52 51 51 50 49 49 50 50 50 49 48 49 48 48 48 49 49 49 49 48 48 47 48 48 48 48 48 48 47 48 46 46 46 46 47 47 49 48 44 43 43 43 42 39 38 42 41 37 43 46
55 55 55 55 54 53 51 51 51 50 50 51 51 51 50 50 50 50 50 51 50 49 49 49 49 49 49 49 49 49 48 48 48 48 47 48 48 48 47 47 47 47 46 45 45 46 46 47 47 47 47 43 42 42 41 39 39 38 42 39 38 41 46
54 54 54 54 54 52 51 51 50 49 51 51 51 49 49 50 51 51 50 50 49 49 48 48 48 49 48 48 47 48 48 48 48 47 48 47 48 47 47 47 47 48 48 46 45 46 46 46 46 45 44 42 41 40 37 36 34 34 34 41 40 40 41
54 53 54 54 53 53 52 51 51 51 50 51 50 49 49 51 51 51 50 50 50 49 48 48 50 49 48 48 47 49 46 46 47 46 46 46 46 48 47 46 46 49 49 48 46 43 44 44 43 42 40 40 38 38 37 36 35 33 33 36 36 38 37
54 53 54 54 53 53 52 51 52 50 50 51 51 50 51 51 51 50 50 51 52 50 50 50 50 49 48 49 49 47 47 47 46 46 46 46 46 47 47 47 46 48 49 48 48 47 47 45 43 41 42 40 38 37 36 35 36 35 34 35 38 35 36
54 53 54 54 53 53 53 52 52 51 50 50 51 51 51 51 51 50 50 51 51 51 51 50 49 49 49 49 48 47 48 46 46 46 46 46 47 47 47 45 45 48 48 48 48 47 47 47 47 46 46 46 42 41 40 38 35 37 37 35 39 36 39
57 56 54 54 54 54 52 52 52 51 51 50 51 52 52 51 51 50 51 50 50 50 52 51 48 48 50 50 49 49 48 47 48 47 47 47 51 47 47 45 46 48 48 49 47 47 47 47 47 48 48 48 47 47 47 44 43 41 38 36 37 41 43
56 57 57 54 54 53 53 52 52 53 51 50 51 52 51 51 51 50 50 50 50 50 52 50 48 48 50 50 49 49 49 50 50 50 49 50 50 49 47 46 48 50 49 49 48 48 47 48 48 48 48 48 47 46 46 46 45 41 36 37 39 41 43
56 56 56 56 55 54 53 53 52 53 53 50 50 52 50 50 51 50 50 50 50 51 51 51 49 49 50 51 51 50 50 51 52 52 52 51 51 51 51 50 49 50 50 50 49 48 48 47 48 47 47 47 46 46 46 45 46 43 41 41 43 43 43
56 56 56 56 55 55 55 54 54 53 54 52 51 52 50 49 50 50 50 50 50 51 50 51 50 50 51 52 51 51 52 53 53 52 52 52 52 51 52 51 51 51 51 51 49 49 48 47 46 46 46 46 45 45 45 45 46 45 45 44 42 42 43
55 55 55 55 54 54 55 55 55 55 54 54 54 53 50 49 51 50 50 50 50 51 51 51 52 52 52 53 53 53 53 53 53 53 52 52 53 52 52 52 52 52 54 54 52 50 50 50 48 46 46 46 45 46 45 45 45 45 44 44 43 43 42
56 55 55 55 54 54 54 54 55 55 55 55 54 54 54 54 53 52 53 52 52 52 52 52 53 51 51 54 54 54 54 54 53 53 53 52 52 53 52 52 53 59 55 53 50 47 46 47 48 47 47 46 46 45 45 45 44 44 44 44 43 43 43
56 55 55 55 55 55 55 55 54 55 55 54 54 53 54 53 53 53 53 53 52 52 53 53 47 47 48 50 54 54 54 53 53 53 53 52 52 53 51 52 53 53 51 51 48 44 44 44 45 45 46 47 48 46 46 45 45 44 44 43 42 43 43
55 55 55 55 55 54 54 55 55 54 54 54 54 52 53 53 53 52 52 52 52 52 52 51 42 45 46 48 50 54 53 53 53 53 53 52 52 52 53 53 52 53 51 49 47 44 43 42 41 41 40 41 42 44 45 46 46 44 44 43 43 43 43
54 54 54 54 54 54 54 53 53 53 54 54 53 52 52 52 52 53 53 52 52 52 52 46 42 43 45 45 47 51 54 54 53 53 53 53 52 52 52 52 53 53 54 53 50 44 41 40 40 39 39 39 39 40 41 43 44 46 45 44 44 42 43
53 54 54 54 53 53 53 53 52 52 54 54 53 52 52 51 52 52 52 52 52 52 52 47 41 43 42 42 43 49 54 53 53 53 53 53 53 53 53 53 53 53 53 53 48 44 42 40 40 40 40 40 38 40 40 39 41 42 44 45 45 44 43
48 51 52 52 52 51 52 52 52 52 52 53 53 52 52 51 52 51 51 52 52 52 52 45 41 41 41 41 41 46 52 52 52 52 53 53 53 53 53 53 53 53 53 53 49 45 43 42 42 41 39 39 42 42 41 42 43 44 45 45 44 45 44
43 45 44 44 45 47 50 51 52 53 52 52 51 50 50 49 49 50 51 51 51 52 52 45 41 40 41 41 41 48 51 52 52 52 52 52 52 53 53 53 53 52 52 53 49 43 43 45 43 42 40 42 40 37 37 38 37 41 45 45 43 42 40
41 39 39 39 39 41 42 45 46 50 51 51 50 50 51 51 50 49 49 50 51 52 51 46 41 40 40 40 41 49 50 51 52 51 52 52 53 52 52 53 53 52 52 52 48 41 41 43 45 43 43 42 40 38 36 36 36 37 38 38 38 37 37
38 38 37 38 38 38 39 39 40 44 45 45 46 46 48 49 50 50 50 50 52 51 51 49 41 41 40 39 45 50 50 51 52 52 51 51 51 50 50 52 54 52 52 52 45 41 40 44 45 44 43 42 40 38 36 36 36 35 36 36 36 35 35
37 37 37 37 38 38 38 39 39 40 41 42 43 44 44 46 48 48 49 49 52 51 51 50 43 40 40 39 44 50 50 51 51 51 50 48 43 42 42 46 49 51 51 49 42 41 40 44 46 44 43 42 41 39 37 35 34 33 33 32 31 32 33
38 38 37 37 37 38 38 37 37 38 38 39 39 40 41 42 43 45 47 49 49 51 51 51 48 41 40 40 42 50 51 51 50 49 48 48 44 41 40 40 43 44 45 42 41 41 40 42 46 45 43 42 41 41 40 36 36 34 35 36 34 35 37
37 37 37 37 37 37 37 37 37 37 37 37 37 37 38 38 40 42 43 45 47 48 50 51 50 41 41 41 41 45 51 52 51 49 48 46 44 44 42 40 39 40 40 40 40 40 40 42 43 45 44 43 43 43 40 38 39 39 39 39 38 37 36
37 38 37 37 36 36 36 36 36 36 36 36 36 36 36 37 38 39 41 42 44 46 49 50 51 44 40 41 41 41 49 52 50 49 47 45 43 42 42 40 39 38 38 39 39 40 41 41 41 45 44 40 38 38 40 40 40 40 39 38 38 37 35
37 38 37 36 36 35 36 35 35 35 35 35 35 35 36 36 37 37 38 38 40 41 44 47 46 46 40 40 39 39 40 45 44 48 48 46 43 42 39 38 38 38 37 37 36 37 37 38 39 39 37 37 37 37 39 39 38 38 37 36 34 33 33
36 36 36 36 36 35 35 35 35 35 35 34 34 35 35 35 35 35 35 36 37 40 44 45 43 42 41 38 39 39 39 39 40 45 47 46 43 41 39 38 38 35 35 35 34 34 34 35 35 35 36 36 36 37 38 37 36 36 34 33 32 32 32